| time (UTC) | temp F | wind direction | speed MPH | gust MPH | rain 1hr in | rain 24hr in | rain mn in | humidity % | barometer mb |
| 20260502181603 | 62 | 89 | 0.0 | 1.0 | 0.00 | 0.00 | 0.00 | 39 | 1091.7 |
| 20260502181503 | 62 | 111 | 0.0 | 1.0 | 0.00 | 0.00 | 0.00 | 39 | 1091.9 |
| 20260502181403 | 62 | 119 | 0.0 | 1.0 | 0.00 | 0.00 | 0.00 | 39 | 1091.7 |
| 20260502181303 | 62 | 124 | 0.0 | 2.0 | 0.00 | 0.00 | 0.00 | 38 | 1091.5 |
| 20260502181203 | 62 | 124 | 0.0 | 2.0 | 0.00 | 0.00 | 0.00 | 38 | 1091.7 |
| 20260502181103 | 62 | 124 | 0.0 | 2.0 | 0.00 | 0.00 | 0.00 | 38 | 1091.7 |
| 20260502180903 | 62 | 128 | 0.0 | 3.0 | 0.00 | 0.00 | 0.00 | 38 | 1091.6 |
| 20260502180817 | 62 | 128 | 0.0 | 3.0 | 0.00 | 0.00 | 0.00 | 38 | 1091.7 |
| 20260502180803 | 62 | 128 | 1.0 | 3.0 | 0.00 | 0.00 | 0.00 | 38 | 1091.7 |
| 20260502180703 | 62 | 127 | 1.0 | 3.0 | 0.00 | 0.00 | 0.00 | 38 | 1091.7 |
| 20260502180503 | 62 | 126 | 1.0 | 3.0 | 0.00 | 0.00 | 0.00 | 37 | 1091.6 |
| 20260502180403 | 63 | 124 | 1.0 | 3.0 | 0.00 | 0.00 | 0.00 | 37 | 1091.4 |
| 20260502180303 | 63 | 124 | 1.0 | 3.0 | 0.00 | 0.00 | 0.00 | 37 | 1091.6 |
| 20260502180203 | 63 | 121 | 1.0 | 3.0 | 0.00 | 0.00 | 0.00 | 36 | 1091.6 |
| 20260502170517 | 67 | 143 | 2.0 | 6.0 | 0.00 | 0.00 | 0.00 | 36 | 1091.9 |
| 20260502170503 | 67 | 148 | 2.0 | 6.0 | 0.00 | 0.00 | 0.00 | 36 | 1091.9 |
| 20260502170216 | 67 | 141 | 2.0 | 8.0 | 0.00 | 0.00 | 0.00 | 35 | 1091.7 |
| 20260502170203 | 67 | 141 | 3.0 | 8.0 | 0.00 | 0.00 | 0.00 | 35 | 1091.7 |
| 20260502170103 | 67 | 142 | 3.0 | 8.0 | 0.00 | 0.00 | 0.00 | 36 | 1091.9 |
| 20260502164318 | 68 | 144 | 3.0 | 7.0 | 0.00 | 0.00 | 0.00 | 34 | 1092.1 |
| 20260502164303 | 68 | 145 | 3.0 | 7.0 | 0.00 | 0.00 | 0.00 | 34 | 1092.1 |
| 20260502164218 | 68 | 145 | 3.0 | 7.0 | 0.00 | 0.00 | 0.00 | 34 | 1091.9 |
| 20260502164203 | 68 | 146 | 3.0 | 7.0 | 0.00 | 0.00 | 0.00 | 34 | 1091.9 |
| 20260502164117 | 68 | 146 | 3.0 | 7.0 | 0.00 | 0.00 | 0.00 | 34 | 1091.9 |
| 20260502163803 | 68 | 142 | 4.0 | 7.0 | 0.00 | 0.00 | 0.00 | 33 | 1091.9 |
| 20260502163703 | 68 | 132 | 4.0 | 7.0 | 0.00 | 0.00 | 0.00 | 34 | 1092.1 |
| 20260502163603 | 68 | 128 | 3.0 | 7.0 | 0.00 | 0.00 | 0.00 | 33 | 1092.2 |
| 20260502163503 | 68 | 122 | 3.0 | 6.0 | 0.00 | 0.00 | 0.00 | 34 | 1092.1 |
| 20260502163403 | 68 | 120 | 3.0 | 6.0 | 0.00 | 0.00 | 0.00 | 34 | 1091.9 |
| 20260502163303 | 68 | 114 | 2.0 | 6.0 | 0.00 | 0.00 | 0.00 | 33 | 1092.1 |
| 20260502163218 | 68 | 109 | 2.0 | 6.0 | 0.00 | 0.00 | 0.00 | 33 | 1092.2 |
| 20260502163203 | 68 | 107 | 2.0 | 6.0 | 0.00 | 0.00 | 0.00 | 33 | 1092.2 |
| 20260502163103 | 68 | 104 | 2.0 | 6.0 | 0.00 | 0.00 | 0.00 | 33 | 1092.1 |
| 20260502162903 | 68 | 96 | 2.0 | 8.0 | 0.00 | 0.00 | 0.00 | 33 | 1092.2 |
| 20260502162803 | 69 | 101 | 2.0 | 8.0 | 0.00 | 0.00 | 0.00 | 32 | 1092.1 |
| 20260502162703 | 69 | 107 | 2.0 | 8.0 | 0.00 | 0.00 | 0.00 | 32 | 1092.3 |
| 20260502162603 | 69 | 109 | 2.0 | 8.0 | 0.00 | 0.00 | 0.00 | 32 | 1092.0 |
| 20260502162503 | 69 | 107 | 2.0 | 8.0 | 0.00 | 0.00 | 0.00 | 32 | 1092.1 |
| 20260502162403 | 69 | 108 | 3.0 | 8.0 | 0.00 | 0.00 | 0.00 | 32 | 1092.3 |
| 20260502162304 | 69 | 104 | 3.0 | 8.0 | 0.00 | 0.00 | 0.00 | 32 | 1092.2 |
| 20260502162218 | 69 | 102 | 3.0 | 8.0 | 0.00 | 0.00 | 0.00 | 32 | 1092.2 |
| 20260502162203 | 69 | 102 | 3.0 | 8.0 | 0.00 | 0.00 | 0.00 | 32 | 1092.2 |
| 20260502162103 | 69 | 102 | 3.0 | 8.0 | 0.00 | 0.00 | 0.00 | 32 | 1092.3 |
| 20260502161903 | 69 | 118 | 3.0 | 7.0 | 0.00 | 0.00 | 0.00 | 32 | 1092.3 |
| 20260502161803 | 69 | 126 | 3.0 | 7.0 | 0.00 | 0.00 | 0.00 | 32 | 1092.3 |
| 20260502161703 | 69 | 124 | 3.0 | 7.0 | 0.00 | 0.00 | 0.00 | 32 | 1092.0 |
| 20260502161603 | 69 | 125 | 4.0 | 8.0 | 0.00 | 0.00 | 0.00 | 32 | 1092.5 |
| 20260502161503 | 69 | 125 | 4.0 | 8.0 | 0.00 | 0.00 | 0.00 | 33 | 1092.1 |
| 20260502161403 | 69 | 125 | 4.0 | 8.0 | 0.00 | 0.00 | 0.00 | 33 | 1092.2 |
| 20260502161303 | 69 | 133 | 3.0 | 8.0 | 0.00 | 0.00 | 0.00 | 33 | 1092.5 |
| 20260502161203 | 69 | 135 | 3.0 | 8.0 | 0.00 | 0.00 | 0.00 | 33 | 1092.3 |
| 20260502161103 | 69 | 131 | 3.0 | 8.0 | 0.00 | 0.00 | 0.00 | 33 | 1092.3 |
| 20260502161003 | 69 | 121 | 4.0 | 8.0 | 0.00 | 0.00 | 0.00 | 33 | 1092.2 |
| 20260502160903 | 69 | 115 | 3.0 | 8.0 | 0.00 | 0.00 | 0.00 | 32 | 1092.2 |
| 20260502160803 | 69 | 110 | 3.0 | 8.0 | 0.00 | 0.00 | 0.00 | 32 | 1092.1 |
| 20260502160703 | 69 | 111 | 3.0 | 8.0 | 0.00 | 0.00 | 0.00 | 32 | 1092.2 |
| 20260502160603 | 69 | 111 | 3.0 | 7.0 | 0.00 | 0.00 | 0.00 | 32 | 1092.5 |
| 20260502160503 | 69 | 117 | 3.0 | 7.0 | 0.00 | 0.00 | 0.00 | 32 | 1092.6 |
| 20260502160403 | 69 | 120 | 3.0 | 7.0 | 0.00 | 0.00 | 0.00 | 32 | 1092.1 |
| 20260502160303 | 69 | 122 | 3.0 | 7.0 | 0.00 | 0.00 | 0.00 | 32 | 1092.3 |
| 20260502152305 | 70 | 72 | 3.0 | 9.0 | 0.00 | 0.00 | 0.00 | 31 | 1092.7 |
| 20260502152203 | 70 | 73 | 4.0 | 9.0 | 0.00 | 0.00 | 0.00 | 31 | 1092.8 |
| 20260502152103 | 70 | 76 | 4.0 | 9.0 | 0.00 | 0.00 | 0.00 | 32 | 1092.8 |
| 20260502151903 | 70 | 81 | 4.0 | 9.0 | 0.00 | 0.00 | 0.00 | 31 | 1092.8 |
| 20260502151803 | 70 | 83 | 4.0 | 9.0 | 0.00 | 0.00 | 0.00 | 31 | 1093.0 |
| 20260502151717 | 70 | 83 | 4.0 | 9.0 | 0.00 | 0.00 | 0.00 | 31 | 1093.0 |
| 20260502151703 | 70 | 84 | 4.0 | 9.0 | 0.00 | 0.00 | 0.00 | 31 | 1093.0 |
| 20260502151603 | 70 | 85 | 4.0 | 9.0 | 0.00 | 0.00 | 0.00 | 31 | 1093.0 |
| 20260502151403 | 70 | 84 | 3.0 | 9.0 | 0.00 | 0.00 | 0.00 | 31 | 1093.1 |
| 20260502151303 | 70 | 79 | 3.0 | 7.0 | 0.00 | 0.00 | 0.00 | 31 | 1093.1 |
| 20260502151203 | 70 | 80 | 3.0 | 7.0 | 0.00 | 0.00 | 0.00 | 31 | 1092.9 |
| 20260502151103 | 70 | 78 | 3.0 | 7.0 | 0.00 | 0.00 | 0.00 | 31 | 1093.2 |
| 20260502151003 | 70 | 76 | 3.0 | 7.0 | 0.00 | 0.00 | 0.00 | 31 | 1093.3 |
| 20260502150903 | 70 | 75 | 3.0 | 7.0 | 0.00 | 0.00 | 0.00 | 31 | 1093.0 |
| 20260502150803 | 70 | 74 | 3.0 | 7.0 | 0.00 | 0.00 | 0.00 | 31 | 1093.1 |
| 20260502150703 | 70 | 82 | 2.0 | 7.0 | 0.00 | 0.00 | 0.00 | 31 | 1093.0 |
| 20260502150603 | 70 | 84 | 2.0 | 7.0 | 0.00 | 0.00 | 0.00 | 31 | 1093.3 |
| 20260502150518 | 70 | 89 | 2.0 | 7.0 | 0.00 | 0.00 | 0.00 | 31 | 1093.1 |
| 20260502150503 | 70 | 90 | 2.0 | 7.0 | 0.00 | 0.00 | 0.00 | 31 | 1093.1 |
| 20260502150403 | 70 | 91 | 2.0 | 7.0 | 0.00 | 0.00 | 0.00 | 31 | 1093.1 |
| 20260502150203 | 70 | 308 | 2.0 | 7.0 | 0.00 | 0.00 | 0.00 | 31 | 1093.1 |
| 20260502150103 | 70 | 275 | 2.0 | 7.0 | 0.00 | 0.00 | 0.00 | 31 | 1093.1 |
| 20260502140118 | 71 | 104 | 3.0 | 8.0 | 0.00 | 0.00 | 0.00 | 31 | 1093.5 |
| 20260502130703 | 71 | 133 | 3.0 | 10.0 | 0.00 | 0.00 | 0.00 | 32 | 1094.4 |
| 20260502130603 | 71 | 127 | 3.0 | 10.0 | 0.00 | 0.00 | 0.00 | 32 | 1094.3 |
| 20260502130517 | 71 | 127 | 3.0 | 11.0 | 0.00 | 0.00 | 0.00 | 32 | 1094.1 |
| 20260502130503 | 71 | 128 | 3.0 | 11.0 | 0.00 | 0.00 | 0.00 | 32 | 1094.1 |
| 20260502130403 | 71 | 135 | 4.0 | 11.0 | 0.00 | 0.00 | 0.00 | 32 | 1094.6 |
| 20260502130217 | 71 | 141 | 3.0 | 11.0 | 0.00 | 0.00 | 0.00 | 31 | 1094.1 |
| 20260502130203 | 71 | 141 | 3.0 | 11.0 | 0.00 | 0.00 | 0.00 | 31 | 1094.1 |
| 20260502130103 | 71 | 146 | 3.0 | 11.0 | 0.00 | 0.00 | 0.00 | 31 | 1094.5 |
| 20260502123803 | 71 | 249 | 3.0 | 6.0 | 0.00 | 0.00 | 0.00 | 30 | 1094.9 |
| 20260502123718 | 71 | 245 | 3.0 | 6.0 | 0.00 | 0.00 | 0.00 | 30 | 1094.7 |
| 20260502123703 | 71 | 242 | 3.0 | 6.0 | 0.00 | 0.00 | 0.00 | 30 | 1094.7 |
| 20260502123603 | 71 | 229 | 3.0 | 7.0 | 0.00 | 0.00 | 0.00 | 30 | 1094.9 |
| 20260502123403 | 71 | 201 | 3.0 | 7.0 | 0.00 | 0.00 | 0.00 | 30 | 1094.7 |
| 20260502123303 | 71 | 184 | 3.0 | 7.0 | 0.00 | 0.00 | 0.00 | 31 | 1094.7 |
| 20260502123203 | 71 | 174 | 3.0 | 7.0 | 0.00 | 0.00 | 0.00 | 31 | 1094.9 |
| 20260502123103 | 72 | 155 | 3.0 | 7.0 | 0.00 | 0.00 | 0.00 | 30 | 1094.7 |
| 20260502123018 | 72 | 151 | 3.0 | 7.0 | 0.00 | 0.00 | 0.00 | 29 | 1094.8 |
| 20260502123003 | 72 | 151 | 3.0 | 7.0 | 0.00 | 0.00 | 0.00 | 29 | 1094.8 |
| 20260502122903 | 71 | 146 | 3.0 | 7.0 | 0.00 | 0.00 | 0.00 | 33 | 1094.6 |
| 20260502122703 | 71 | 153 | 3.0 | 7.0 | 0.00 | 0.00 | 0.00 | 31 | 1094.8 |
| 20260502122618 | 71 | 151 | 2.0 | 6.0 | 0.00 | 0.00 | 0.00 | 31 | 1094.7 |
| 20260502122603 | 71 | 152 | 2.0 | 6.0 | 0.00 | 0.00 | 0.00 | 31 | 1094.7 |
| 20260502122517 | 71 | 157 | 2.0 | 6.0 | 0.00 | 0.00 | 0.00 | 31 | 1094.7 |
| 20260502122503 | 71 | 163 | 2.0 | 6.0 | 0.00 | 0.00 | 0.00 | 31 | 1094.7 |
| 20260502122318 | 71 | 192 | 2.0 | 7.0 | 0.00 | 0.00 | 0.00 | 30 | 1095.1 |
| 20260502122217 | 71 | 198 | 3.0 | 7.0 | 0.00 | 0.00 | 0.00 | 30 | 1094.7 |
| 20260502122203 | 71 | 201 | 3.0 | 7.0 | 0.00 | 0.00 | 0.00 | 30 | 1094.7 |
| 20260502122117 | 71 | 204 | 3.0 | 7.0 | 0.00 | 0.00 | 0.00 | 30 | 1094.7 |
| 20260502121803 | 71 | 182 | 4.0 | 10.0 | 0.00 | 0.00 | 0.00 | 30 | 1094.8 |
| 20260502121718 | 71 | 170 | 4.0 | 10.0 | 0.00 | 0.00 | 0.00 | 30 | 1094.9 |
| 20260502121703 | 72 | 165 | 4.0 | 10.0 | 0.00 | 0.00 | 0.00 | 31 | 1094.9 |
| 20260502121603 | 72 | 159 | 4.0 | 10.0 | 0.00 | 0.00 | 0.00 | 31 | 1094.9 |
| 20260502121403 | 72 | 144 | 4.0 | 11.0 | 0.00 | 0.00 | 0.00 | 31 | 1095.0 |
| 20260502121303 | 72 | 140 | 4.0 | 11.0 | 0.00 | 0.00 | 0.00 | 31 | 1095.0 |
| 20260502121203 | 72 | 137 | 4.0 | 11.0 | 0.00 | 0.00 | 0.00 | 31 | 1094.9 |
| 20260502121103 | 72 | 133 | 4.0 | 11.0 | 0.00 | 0.00 | 0.00 | 31 | 1095.0 |
| 20260502121003 | 72 | 130 | 5.0 | 11.0 | 0.00 | 0.00 | 0.00 | 31 | 1094.8 |
| 20260502120903 | 72 | 127 | 4.0 | 11.0 | 0.00 | 0.00 | 0.00 | 31 | 1094.9 |
| 20260502120803 | 72 | 132 | 4.0 | 11.0 | 0.00 | 0.00 | 0.00 | 31 | 1094.9 |
| 20260502120718 | 72 | 138 | 4.0 | 11.0 | 0.00 | 0.00 | 0.00 | 32 | 1095.0 |
| 20260502120703 | 72 | 140 | 4.0 | 11.0 | 0.00 | 0.00 | 0.00 | 32 | 1095.0 |
| 20260502120603 | 72 | 146 | 4.0 | 11.0 | 0.00 | 0.00 | 0.00 | 32 | 1094.9 |
| 20260502120517 | 72 | 152 | 4.0 | 11.0 | 0.00 | 0.00 | 0.00 | 31 | 1095.0 |
| 20260502120403 | 72 | 154 | 3.0 | 9.0 | 0.00 | 0.00 | 0.00 | 30 | 1094.8 |
| 20260502120217 | 72 | 150 | 3.0 | 9.0 | 0.00 | 0.00 | 0.00 | 31 | 1095.0 |
| 20260502120203 | 72 | 152 | 3.0 | 9.0 | 0.00 | 0.00 | 0.00 | 31 | 1095.0 |
| 20260502115903 | 72 | 156 | 3.0 | 10.0 | 0.00 | 0.00 | 0.00 | 30 | 1095.0 |
| 20260502115803 | 72 | 153 | 3.0 | 10.0 | 0.00 | 0.00 | 0.00 | 30 | 1095.2 |
| 20260502115703 | 72 | 143 | 3.0 | 10.0 | 0.00 | 0.00 | 0.00 | 30 | 1094.9 |
| 20260502115603 | 72 | 129 | 3.0 | 10.0 | 0.00 | 0.00 | 0.00 | 30 | 1095.1 |
| 20260502115503 | 72 | 120 | 3.0 | 10.0 | 0.00 | 0.00 | 0.00 | 30 | 1094.9 |
| 20260502115403 | 72 | 127 | 3.0 | 10.0 | 0.00 | 0.00 | 0.00 | 31 | 1095.0 |
| 20260502115318 | 72 | 134 | 3.0 | 10.0 | 0.00 | 0.00 | 0.00 | 31 | 1095.0 |
| 20260502115305 | 72 | 139 | 3.0 | 10.0 | 0.00 | 0.00 | 0.00 | 31 | 1095.0 |
| 20260502115203 | 72 | 172 | 3.0 | 10.0 | 0.00 | 0.00 | 0.00 | 31 | 1095.2 |
| 20260502115018 | 73 | 273 | 3.0 | 8.0 | 0.00 | 0.00 | 0.00 | 29 | 1095.0 |
| 20260502115003 | 73 | 273 | 2.0 | 7.0 | 0.00 | 0.00 | 0.00 | 29 | 1095.0 |
| 20260502114903 | 73 | 272 | 2.0 | 7.0 | 0.00 | 0.00 | 0.00 | 28 | 1095.3 |
| 20260502114717 | 73 | 263 | 2.0 | 7.0 | 0.00 | 0.00 | 0.00 | 28 | 1095.0 |
| 20260502114703 | 73 | 261 | 2.0 | 7.0 | 0.00 | 0.00 | 0.00 | 28 | 1095.0 |
| 20260502114318 | 75 | 272 | 2.0 | 7.0 | 0.00 | 0.00 | 0.00 | 26 | 1095.2 |
| 20260502114303 | 75 | 273 | 2.0 | 7.0 | 0.00 | 0.00 | 0.00 | 26 | 1095.2 |
| 20260502114203 | 75 | 299 | 2.0 | 4.0 | 0.00 | 0.00 | 0.00 | 27 | 1095.2 |
| 20260502114003 | 75 | 357 | 2.0 | 4.0 | 0.00 | 0.00 | 0.00 | 26 | 1095.2 |
| 20260502113903 | 75 | 12 | 2.0 | 4.0 | 0.00 | 0.00 | 0.00 | 27 | 1095.3 |
| 20260502113803 | 76 | 20 | 2.0 | 4.0 | 0.00 | 0.00 | 0.00 | 26 | 1095.3 |
| 20260502113718 | 76 | 21 | 2.0 | 4.0 | 0.00 | 0.00 | 0.00 | 27 | 1095.4 |
| 20260502113703 | 76 | 20 | 2.0 | 4.0 | 0.00 | 0.00 | 0.00 | 27 | 1095.4 |
| 20260502113603 | 76 | 26 | 2.0 | 6.0 | 0.00 | 0.00 | 0.00 | 27 | 1095.4 |
| 20260502113403 | 76 | 43 | 2.0 | 8.0 | 0.00 | 0.00 | 0.00 | 28 | 1095.3 |
| 20260502113303 | 75 | 49 | 3.0 | 8.0 | 0.00 | 0.00 | 0.00 | 28 | 1095.3 |
| 20260502113216 | 75 | 56 | 3.0 | 8.0 | 0.00 | 0.00 | 0.00 | 28 | 1095.5 |
| 20260502113203 | 75 | 57 | 3.0 | 8.0 | 0.00 | 0.00 | 0.00 | 28 | 1095.5 |
| 20260502113103 | 75 | 61 | 3.0 | 8.0 | 0.00 | 0.00 | 0.00 | 28 | 1095.3 |
| 20260502113018 | 75 | 67 | 3.0 | 8.0 | 0.00 | 0.00 | 0.00 | 29 | 1095.2 |
| 20260502112903 | 75 | 71 | 3.0 | 8.0 | 0.00 | 0.00 | 0.00 | 28 | 1095.3 |
| 20260502112717 | 75 | 69 | 4.0 | 8.0 | 0.00 | 0.00 | 0.00 | 27 | 1095.2 |
| 20260502112603 | 75 | 70 | 4.0 | 8.0 | 0.00 | 0.00 | 0.00 | 29 | 1095.2 |
| 20260502112517 | 75 | 73 | 4.0 | 8.0 | 0.00 | 0.00 | 0.00 | 28 | 1095.2 |
| 20260502112403 | 75 | 73 | 4.0 | 8.0 | 0.00 | 0.00 | 0.00 | 28 | 1095.4 |
| 20260502112203 | 75 | 70 | 3.0 | 8.0 | 0.00 | 0.00 | 0.00 | 29 | 1095.3 |
| 20260502112103 | 75 | 67 | 3.0 | 8.0 | 0.00 | 0.00 | 0.00 | 28 | 1095.3 |
| 20260502112003 | 76 | 59 | 3.0 | 8.0 | 0.00 | 0.00 | 0.00 | 29 | 1095.5 |
| 20260502111903 | 76 | 49 | 3.0 | 8.0 | 0.00 | 0.00 | 0.00 | 30 | 1095.6 |
| 20260502111803 | 75 | 45 | 3.0 | 8.0 | 0.00 | 0.00 | 0.00 | 30 | 1095.3 |
| 20260502111703 | 75 | 39 | 3.0 | 8.0 | 0.00 | 0.00 | 0.00 | 29 | 1095.5 |
| 20260502111603 | 75 | 34 | 3.0 | 8.0 | 0.00 | 0.00 | 0.00 | 28 | 1095.5 |
| 20260502111503 | 75 | 39 | 3.0 | 8.0 | 0.00 | 0.00 | 0.00 | 28 | 1095.4 |
| 20260502111403 | 75 | 53 | 3.0 | 8.0 | 0.00 | 0.00 | 0.00 | 28 | 1095.3 |
| 20260502111303 | 75 | 58 | 3.0 | 7.0 | 0.00 | 0.00 | 0.00 | 28 | 1095.5 |
| 20260502111203 | 76 | 65 | 3.0 | 7.0 | 0.00 | 0.00 | 0.00 | 28 | 1095.2 |
| 20260502111117 | 76 | 67 | 3.0 | 7.0 | 0.00 | 0.00 | 0.00 | 28 | 1095.3 |
| 20260502111103 | 76 | 66 | 3.0 | 7.0 | 0.00 | 0.00 | 0.00 | 29 | 1095.3 |
| 20260502111003 | 76 | 73 | 3.0 | 7.0 | 0.00 | 0.00 | 0.00 | 29 | 1095.6 |
| 20260502110803 | 76 | 88 | 3.0 | 7.0 | 0.00 | 0.00 | 0.00 | 31 | 1095.5 |
| 20260502110703 | 76 | 97 | 3.0 | 7.0 | 0.00 | 0.00 | 0.00 | 30 | 1095.3 |
| 20260502110603 | 75 | 92 | 3.0 | 7.0 | 0.00 | 0.00 | 0.00 | 30 | 1095.8 |
| 20260502110417 | 75 | 74 | 3.0 | 7.0 | 0.00 | 0.00 | 0.00 | 29 | 1095.8 |
| 20260502110403 | 75 | 72 | 3.0 | 7.0 | 0.00 | 0.00 | 0.00 | 29 | 1095.8 |
| 20260502110318 | 75 | 72 | 3.0 | 7.0 | 0.00 | 0.00 | 0.00 | 29 | 1095.4 |
| 20260502110303 | 75 | 74 | 3.0 | 7.0 | 0.00 | 0.00 | 0.00 | 29 | 1095.4 |
| 20260502110003 | 75 | 101 | 2.0 | 6.0 | 0.00 | 0.00 | 0.00 | 30 | 1095.6 |
| 20260502105903 | 75 | 131 | 2.0 | 7.0 | 0.00 | 0.00 | 0.00 | 31 | 1095.6 |
| 20260502105803 | 75 | 157 | 3.0 | 7.0 | 0.00 | 0.00 | 0.00 | 30 | 1095.7 |
| 20260502105703 | 75 | 158 | 3.0 | 7.0 | 0.00 | 0.00 | 0.00 | 28 | 1095.6 |
| 20260502105603 | 75 | 148 | 3.0 | 8.0 | 0.00 | 0.00 | 0.00 | 29 | 1095.7 |
| 20260502105503 | 76 | 139 | 4.0 | 9.0 | 0.00 | 0.00 | 0.00 | 29 | 1095.5 |
| 20260502105403 | 76 | 138 | 4.0 | 9.0 | 0.00 | 0.00 | 0.00 | 31 | 1095.6 |
| 20260502105306 | 75 | 143 | 4.0 | 10.0 | 0.00 | 0.00 | 0.00 | 32 | 1095.6 |
| 20260502105203 | 75 | 151 | 4.0 | 10.0 | 0.00 | 0.00 | 0.00 | 31 | 1095.7 |
| 20260502105103 | 75 | 150 | 4.0 | 10.0 | 0.00 | 0.00 | 0.00 | 31 | 1095.7 |
| 20260502105003 | 76 | 148 | 4.0 | 10.0 | 0.00 | 0.00 | 0.00 | 31 | 1095.9 |
| 20260502104903 | 76 | 142 | 4.0 | 10.0 | 0.00 | 0.00 | 0.00 | 31 | 1095.5 |
| 20260502104803 | 76 | 139 | 4.0 | 10.0 | 0.00 | 0.00 | 0.00 | 32 | 1095.9 |
| 20260502104703 | 76 | 135 | 3.0 | 10.0 | 0.00 | 0.00 | 0.00 | 32 | 1095.7 |
| 20260502104603 | 76 | 139 | 3.0 | 10.0 | 0.00 | 0.00 | 0.00 | 32 | 1095.8 |
| 20260502104503 | 76 | 142 | 3.0 | 10.0 | 0.00 | 0.00 | 0.00 | 31 | 1095.6 |
| 20260502104403 | 76 | 138 | 2.0 | 10.0 | 0.00 | 0.00 | 0.00 | 31 | 1095.8 |
| 20260502104303 | 76 | 102 | 2.0 | 6.0 | 0.00 | 0.00 | 0.00 | 31 | 1095.9 |
| 20260502104218 | 76 | 71 | 2.0 | 6.0 | 0.00 | 0.00 | 0.00 | 31 | 1095.8 |
| 20260502104203 | 76 | 57 | 2.0 | 6.0 | 0.00 | 0.00 | 0.00 | 31 | 1095.8 |
| 20260502104103 | 76 | 34 | 2.0 | 4.0 | 0.00 | 0.00 | 0.00 | 30 | 1096.0 |
| 20260502103903 | 76 | 22 | 2.0 | 4.0 | 0.00 | 0.00 | 0.00 | 30 | 1095.7 |
| 20260502103803 | 76 | 34 | 2.0 | 4.0 | 0.00 | 0.00 | 0.00 | 30 | 1095.8 |
| 20260502103703 | 76 | 39 | 2.0 | 4.0 | 0.00 | 0.00 | 0.00 | 30 | 1095.9 |
| 20260502103603 | 76 | 41 | 2.0 | 6.0 | 0.00 | 0.00 | 0.00 | 30 | 1095.8 |
| 20260502103503 | 75 | 49 | 2.0 | 6.0 | 0.00 | 0.00 | 0.00 | 29 | 1095.7 |
| 20260502103308 | 75 | 57 | 2.0 | 6.0 | 0.00 | 0.00 | 0.00 | 32 | 1095.8 |
| 20260502103203 | 74 | 68 | 2.0 | 6.0 | 0.00 | 0.00 | 0.00 | 31 | 1095.8 |
| 20260502103117 | 74 | 85 | 2.0 | 8.0 | 0.00 | 0.00 | 0.00 | 31 | 1095.9 |
| 20260502103103 | 74 | 89 | 2.0 | 8.0 | 0.00 | 0.00 | 0.00 | 31 | 1095.9 |
| 20260502103003 | 74 | 95 | 3.0 | 8.0 | 0.00 | 0.00 | 0.00 | 30 | 1096.0 |
| 20260502102918 | 74 | 97 | 3.0 | 8.0 | 0.00 | 0.00 | 0.00 | 30 | 1095.9 |
| 20260502102803 | 74 | 94 | 3.0 | 8.0 | 0.00 | 0.00 | 0.00 | 30 | 1095.9 |
| 20260502102603 | 74 | 95 | 3.0 | 8.0 | 0.00 | 0.00 | 0.00 | 29 | 1095.8 |
| 20260502102503 | 74 | 94 | 4.0 | 8.0 | 0.00 | 0.00 | 0.00 | 28 | 1096.0 |
| 20260502102404 | 74 | 97 | 4.0 | 8.0 | 0.00 | 0.00 | 0.00 | 31 | 1095.9 |
| 20260502102203 | 74 | 93 | 4.0 | 9.0 | 0.00 | 0.00 | 0.00 | 32 | 1096.2 |
| 20260502102103 | 74 | 90 | 4.0 | 9.0 | 0.00 | 0.00 | 0.00 | 31 | 1096.3 |
| 20260502102003 | 74 | 88 | 4.0 | 9.0 | 0.00 | 0.00 | 0.00 | 31 | 1096.0 |
| 20260502101903 | 74 | 85 | 4.0 | 9.0 | 0.00 | 0.00 | 0.00 | 29 | 1096.2 |
| 20260502101803 | 75 | 79 | 4.0 | 9.0 | 0.00 | 0.00 | 0.00 | 30 | 1096.0 |
| 20260502101703 | 75 | 79 | 3.0 | 9.0 | 0.00 | 0.00 | 0.00 | 31 | 1096.3 |
| 20260502101603 | 75 | 80 | 3.0 | 9.0 | 0.00 | 0.00 | 0.00 | 31 | 1095.9 |
| 20260502101503 | 75 | 80 | 3.0 | 9.0 | 0.00 | 0.00 | 0.00 | 32 | 1096.2 |
| 20260502101403 | 75 | 76 | 3.0 | 9.0 | 0.00 | 0.00 | 0.00 | 32 | 1095.8 |
| 20260502101303 | 74 | 71 | 3.0 | 9.0 | 0.00 | 0.00 | 0.00 | 32 | 1095.9 |
| 20260502101203 | 74 | 70 | 2.0 | 6.0 | 0.00 | 0.00 | 0.00 | 32 | 1096.3 |
| 20260502101003 | 74 | 65 | 2.0 | 6.0 | 0.00 | 0.00 | 0.00 | 32 | 1096.3 |
| 20260502100903 | 74 | 65 | 2.0 | 6.0 | 0.00 | 0.00 | 0.00 | 31 | 1096.2 |
| 20260502100803 | 75 | 74 | 2.0 | 6.0 | 0.00 | 0.00 | 0.00 | 30 | 1096.0 |
| 20260502100703 | 75 | 76 | 2.0 | 6.0 | 0.00 | 0.00 | 0.00 | 30 | 1096.2 |
| 20260502100603 | 75 | 68 | 2.0 | 6.0 | 0.00 | 0.00 | 0.00 | 30 | 1096.0 |
| 20260502100518 | 75 | 66 | 2.0 | 6.0 | 0.00 | 0.00 | 0.00 | 31 | 1096.0 |
| 20260502100503 | 75 | 69 | 2.0 | 9.0 | 0.00 | 0.00 | 0.00 | 31 | 1096.0 |
| 20260502100403 | 75 | 81 | 3.0 | 10.0 | 0.00 | 0.00 | 0.00 | 29 | 1096.2 |
| 20260502100203 | 75 | 91 | 3.0 | 10.0 | 0.00 | 0.00 | 0.00 | 31 | 1096.3 |
| 20260502091503 | 72 | 145 | 4.0 | 10.0 | 0.00 | 0.00 | 0.00 | 34 | 1096.5 |
| 20260502091418 | 72 | 155 | 4.0 | 10.0 | 0.00 | 0.00 | 0.00 | 33 | 1096.6 |
| 20260502091403 | 72 | 161 | 4.0 | 10.0 | 0.00 | 0.00 | 0.00 | 33 | 1096.6 |
| 20260502091303 | 71 | 174 | 3.0 | 9.0 | 0.00 | 0.00 | 0.00 | 34 | 1096.5 |
| 20260502091103 | 71 | 177 | 3.0 | 8.0 | 0.00 | 0.00 | 0.00 | 34 | 1096.3 |
| 20260502091003 | 71 | 179 | 3.0 | 8.0 | 0.00 | 0.00 | 0.00 | 33 | 1096.6 |
| 20260502090903 | 71 | 179 | 3.0 | 8.0 | 0.00 | 0.00 | 0.00 | 33 | 1096.7 |
| 20260502090803 | 71 | 186 | 3.0 | 8.0 | 0.00 | 0.00 | 0.00 | 34 | 1096.8 |
| 20260502090703 | 71 | 187 | 3.0 | 8.0 | 0.00 | 0.00 | 0.00 | 34 | 1096.5 |
| 20260502090603 | 71 | 190 | 3.0 | 8.0 | 0.00 | 0.00 | 0.00 | 34 | 1096.6 |
| 20260502090503 | 71 | 197 | 3.0 | 8.0 | 0.00 | 0.00 | 0.00 | 34 | 1096.7 |
| 20260502090403 | 71 | 190 | 3.0 | 8.0 | 0.00 | 0.00 | 0.00 | 34 | 1096.8 |
| 20260502090303 | 71 | 189 | 3.0 | 8.0 | 0.00 | 0.00 | 0.00 | 35 | 1096.6 |
| 20260502090203 | 71 | 197 | 3.0 | 8.0 | 0.00 | 0.00 | 0.00 | 35 | 1096.8 |
| 20260502080103 | 74 | 101 | 2.0 | 6.0 | 0.00 | 0.00 | 0.00 | 32 | 1096.9 |
| 20260502071503 | 71 | 104 | 3.0 | 8.0 | 0.00 | 0.00 | 0.00 | 38 | 1097.1 |
| 20260502071403 | 70 | 105 | 3.0 | 8.0 | 0.00 | 0.00 | 0.00 | 37 | 1097.0 |
| 20260502071303 | 70 | 104 | 3.0 | 8.0 | 0.00 | 0.00 | 0.00 | 40 | 1097.0 |
| 20260502071203 | 70 | 103 | 3.0 | 8.0 | 0.00 | 0.00 | 0.00 | 39 | 1097.1 |
| 20260502071103 | 70 | 103 | 3.0 | 8.0 | 0.00 | 0.00 | 0.00 | 38 | 1097.0 |
| 20260502071003 | 69 | 102 | 3.0 | 8.0 | 0.00 | 0.00 | 0.00 | 39 | 1097.1 |
| 20260502070903 | 69 | 105 | 3.0 | 8.0 | 0.00 | 0.00 | 0.00 | 39 | 1097.0 |
| 20260502070803 | 69 | 111 | 3.0 | 8.0 | 0.00 | 0.00 | 0.00 | 40 | 1097.0 |
| 20260502070718 | 68 | 118 | 3.0 | 8.0 | 0.00 | 0.00 | 0.00 | 40 | 1096.9 |
| 20260502070703 | 68 | 120 | 3.0 | 8.0 | 0.00 | 0.00 | 0.00 | 40 | 1096.9 |
| 20260502070603 | 68 | 122 | 3.0 | 8.0 | 0.00 | 0.00 | 0.00 | 41 | 1096.9 |
| 20260502070403 | 67 | 137 | 3.0 | 8.0 | 0.00 | 0.00 | 0.00 | 42 | 1096.8 |
| 20260502070303 | 67 | 149 | 2.0 | 8.0 | 0.00 | 0.00 | 0.00 | 43 | 1096.9 |
| 20260502070203 | 67 | 159 | 2.0 | 8.0 | 0.00 | 0.00 | 0.00 | 42 | 1096.9 |
| 20260502070003 | 67 | 164 | 2.0 | 6.0 | 0.00 | 0.00 | 0.00 | 40 | 1097.1 |
| 20260502065903 | 67 | 159 | 3.0 | 6.0 | 0.00 | 0.00 | 0.00 | 40 | 1097.1 |
| 20260502065803 | 67 | 158 | 2.0 | 6.0 | 0.00 | 0.00 | 0.00 | 40 | 1097.1 |
| 20260502065703 | 67 | 155 | 2.0 | 6.0 | 0.00 | 0.00 | 0.00 | 40 | 1097.0 |
| 20260502065603 | 67 | 155 | 2.0 | 6.0 | 0.00 | 0.00 | 0.00 | 40 | 1096.9 |
| 20260502065503 | 67 | 153 | 2.0 | 6.0 | 0.00 | 0.00 | 0.00 | 41 | 1097.0 |
| 20260502065403 | 68 | 155 | 2.0 | 6.0 | 0.00 | 0.00 | 0.00 | 40 | 1097.2 |
| 20260502065306 | 68 | 154 | 2.0 | 6.0 | 0.00 | 0.00 | 0.00 | 42 | 1096.8 |
| 20260502065217 | 68 | 149 | 1.0 | 6.0 | 0.00 | 0.00 | 0.00 | 42 | 1097.0 |
| 20260502065203 | 68 | 150 | 1.0 | 6.0 | 0.00 | 0.00 | 0.00 | 42 | 1097.0 |
| 20260502065117 | 67 | 160 | 1.0 | 6.0 | 0.00 | 0.00 | 0.00 | 44 | 1096.9 |
| 20260502065103 | 67 | 164 | 1.0 | 6.0 | 0.00 | 0.00 | 0.00 | 44 | 1096.9 |
| 20260502064803 | 66 | 202 | 0.0 | 2.0 | 0.00 | 0.00 | 0.00 | 47 | 1097.0 |
| 20260502064703 | 66 | 201 | 0.0 | 2.0 | 0.00 | 0.00 | 0.00 | 46 | 1097.0 |
| 20260502064618 | 66 | 201 | 0.0 | 2.0 | 0.00 | 0.00 | 0.00 | 47 | 1097.1 |
| 20260502064603 | 66 | 201 | 0.0 | 2.0 | 0.00 | 0.00 | 0.00 | 47 | 1097.1 |
| 20260502064503 | 65 | 199 | 0.0 | 2.0 | 0.00 | 0.00 | 0.00 | 48 | 1097.0 |
| 20260502064303 | 64 | 192 | 0.0 | 1.0 | 0.00 | 0.00 | 0.00 | 48 | 1097.1 |
| 20260502064203 | 64 | 180 | 0.0 | 1.0 | 0.00 | 0.00 | 0.00 | 48 | 1097.1 |
| 20260502064103 | 64 | 0 | 0.0 | 0.0 | 0.00 | 0.00 | 0.00 | 47 | 1096.9 |
| 20260502064003 | 64 | 0 | 0.0 | 0.0 | 0.00 | 0.00 | 0.00 | 47 | 1097.0 |
| 20260502063903 | 63 | 0 | 0.0 | 0.0 | 0.00 | 0.00 | 0.00 | 52 | 1097.2 |
| 20260502063803 | 63 | 0 | 0.0 | 0.0 | 0.00 | 0.00 | 0.00 | 50 | 1097.2 |
| 20260502063703 | 63 | 0 | 0.0 | 0.0 | 0.00 | 0.00 | 0.00 | 53 | 1096.8 |
| 20260502063618 | 63 | 0 | 0.0 | 0.0 | 0.00 | 0.00 | 0.00 | 53 | 1097.1 |
| 20260502063603 | 63 | 0 | 0.0 | 0.0 | 0.00 | 0.00 | 0.00 | 53 | 1097.1 |
| 20260502063503 | 62 | 0 | 0.0 | 0.0 | 0.00 | 0.00 | 0.00 | 53 | 1096.8 |
| 20260502063303 | 61 | 0 | 0.0 | 0.0 | 0.00 | 0.00 | 0.00 | 51 | 1096.9 |
| 20260502063203 | 61 | 0 | 0.0 | 0.0 | 0.00 | 0.00 | 0.00 | 53 | 1096.9 |
| 20260502063103 | 60 | 0 | 0.0 | 0.0 | 0.00 | 0.00 | 0.00 | 53 | 1097.1 |
| 20260502063003 | 60 | 0 | 0.0 | 0.0 | 0.00 | 0.00 | 0.00 | 52 | 1097.1 |
| 20260502062903 | 60 | 0 | 0.0 | 0.0 | 0.00 | 0.00 | 0.00 | 52 | 1096.9 |
| 20260502062803 | 60 | 0 | 0.0 | 0.0 | 0.00 | 0.00 | 0.00 | 53 | 1097.1 |
| 20260502062718 | 59 | 0 | 0.0 | 0.0 | 0.00 | 0.00 | 0.00 | 55 | 1097.0 |
| 20260502062603 | 59 | 0 | 0.0 | 0.0 | 0.00 | 0.00 | 0.00 | 55 | 1097.1 |
| 20260502062403 | 59 | 0 | 0.0 | 0.0 | 0.00 | 0.00 | 0.00 | 58 | 1096.9 |
| 20260502062306 | 58 | 0 | 0.0 | 0.0 | 0.00 | 0.00 | 0.00 | 62 | 1097.1 |
| 20260502062203 | 58 | 0 | 0.0 | 0.0 | 0.00 | 0.00 | 0.00 | 63 | 1097.3 |
| 20260502062018 | 58 | 0 | 0.0 | 0.0 | 0.00 | 0.00 | 0.00 | 64 | 1096.9 |
| 20260502062003 | 57 | 0 | 0.0 | 0.0 | 0.00 | 0.00 | 0.00 | 64 | 1096.9 |
| 20260502061903 | 57 | 0 | 0.0 | 0.0 | 0.00 | 0.00 | 0.00 | 65 | 1097.1 |
| 20260502061703 | 56 | 0 | 0.0 | 0.0 | 0.00 | 0.00 | 0.00 | 66 | 1097.1 |
| 20260502061618 | 56 | 0 | 0.0 | 0.0 | 0.00 | 0.00 | 0.00 | 66 | 1097.3 |
| 20260502061603 | 55 | 0 | 0.0 | 0.0 | 0.00 | 0.00 | 0.00 | 67 | 1097.3 |
| 20260502061517 | 55 | 0 | 0.0 | 0.0 | 0.00 | 0.00 | 0.00 | 67 | 1097.1 |
| 20260502061203 | 54 | 0 | 0.0 | 0.0 | 0.00 | 0.00 | 0.00 | 65 | 1097.2 |
| 20260502061103 | 53 | 0 | 0.0 | 0.0 | 0.00 | 0.00 | 0.00 | 65 | 1097.0 |
| 20260502061003 | 53 | 0 | 0.0 | 0.0 | 0.00 | 0.00 | 0.00 | 67 | 1097.0 |
| 20260502060903 | 53 | 0 | 0.0 | 0.0 | 0.00 | 0.00 | 0.00 | 69 | 1097.0 |
| 20260502060803 | 53 | 0 | 0.0 | 0.0 | 0.00 | 0.00 | 0.00 | 69 | 1097.0 |
| 20260502060703 | 52 | 0 | 0.0 | 0.0 | 0.00 | 0.00 | 0.00 | 69 | 1097.0 |
| 20260502060603 | 52 | 0 | 0.0 | 0.0 | 0.00 | 0.00 | 0.00 | 70 | 1097.0 |
| 20260502060503 | 52 | 0 | 0.0 | 0.0 | 0.00 | 0.00 | 0.00 | 70 | 1097.0 |
| 20260502060403 | 52 | 0 | 0.0 | 0.0 | 0.00 | 0.00 | 0.00 | 71 | 1097.0 |
| 20260502060318 | 51 | 0 | 0.0 | 0.0 | 0.00 | 0.00 | 0.00 | 71 | 1097.0 |
| 20260502060303 | 51 | 0 | 0.0 | 0.0 | 0.00 | 0.00 | 0.00 | 71 | 1097.0 |
| 20260502060203 | 51 | 0 | 0.0 | 0.0 | 0.00 | 0.00 | 0.00 | 71 | 1097.2 |
| 20260502060003 | 51 | 0 | 0.0 | 0.0 | 0.00 | 0.00 | 0.00 | 70 | 1097.3 |
| 20260502055903 | 50 | 0 | 0.0 | 0.0 | 0.00 | 0.00 | 0.00 | 70 | 1097.2 |
| 20260502055803 | 50 | 0 | 0.0 | 0.0 | 0.00 | 0.00 | 0.00 | 70 | 1097.1 |
| 20260502055703 | 50 | 0 | 0.0 | 0.0 | 0.00 | 0.00 | 0.00 | 70 | 1096.9 |
| 20260502055603 | 50 | 0 | 0.0 | 0.0 | 0.00 | 0.00 | 0.00 | 70 | 1097.0 |
| 20260502055503 | 50 | 0 | 0.0 | 0.0 | 0.00 | 0.00 | 0.00 | 69 | 1096.9 |
| 20260502055403 | 50 | 0 | 0.0 | 0.0 | 0.00 | 0.00 | 0.00 | 70 | 1097.0 |
| 20260502055305 | 50 | 0 | 0.0 | 0.0 | 0.00 | 0.00 | 0.00 | 72 | 1097.0 |
| 20260502055203 | 49 | 0 | 0.0 | 0.0 | 0.00 | 0.00 | 0.00 | 73 | 1097.2 |
| 20260502055117 | 49 | 0 | 0.0 | 0.0 | 0.00 | 0.00 | 0.00 | 74 | 1097.0 |
| 20260502055103 | 49 | 0 | 0.0 | 0.0 | 0.00 | 0.00 | 0.00 | 74 | 1097.0 |
| 20260502054803 | 49 | 0 | 0.0 | 0.0 | 0.00 | 0.00 | 0.00 | 73 | 1097.0 |
| 20260502054703 | 49 | 0 | 0.0 | 0.0 | 0.00 | 0.00 | 0.00 | 73 | 1097.0 |
| 20260502054503 | 48 | 0 | 0.0 | 0.0 | 0.00 | 0.00 | 0.00 | 74 | 1097.0 |
| 20260502054403 | 48 | 0 | 0.0 | 0.0 | 0.00 | 0.00 | 0.00 | 75 | 1097.0 |
| 20260502054317 | 48 | 0 | 0.0 | 0.0 | 0.00 | 0.00 | 0.00 | 75 | 1097.2 |
| 20260502054303 | 48 | 0 | 0.0 | 0.0 | 0.00 | 0.00 | 0.00 | 75 | 1097.2 |
| 20260502054203 | 48 | 0 | 0.0 | 0.0 | 0.00 | 0.00 | 0.00 | 75 | 1097.0 |
| 20260502054003 | 47 | 0 | 0.0 | 0.0 | 0.00 | 0.00 | 0.00 | 76 | 1097.1 |
| 20260502053903 | 47 | 0 | 0.0 | 0.0 | 0.00 | 0.00 | 0.00 | 76 | 1097.1 |
| 20260502053803 | 47 | 0 | 0.0 | 0.0 | 0.00 | 0.00 | 0.00 | 76 | 1097.1 |
| 20260502053703 | 47 | 0 | 0.0 | 0.0 | 0.00 | 0.00 | 0.00 | 77 | 1097.0 |
| 20260502053603 | 47 | 0 | 0.0 | 0.0 | 0.00 | 0.00 | 0.00 | 75 | 1097.0 |
| 20260502053503 | 47 | 0 | 0.0 | 0.0 | 0.00 | 0.00 | 0.00 | 77 | 1096.9 |
| 20260502053405 | 47 | 0 | 0.0 | 0.0 | 0.00 | 0.00 | 0.00 | 77 | 1097.1 |
| 20260502053303 | 47 | 0 | 0.0 | 0.0 | 0.00 | 0.00 | 0.00 | 78 | 1097.0 |
| 20260502053203 | 47 | 0 | 0.0 | 0.0 | 0.00 | 0.00 | 0.00 | 78 | 1096.9 |
| 20260502053103 | 46 | 0 | 0.0 | 0.0 | 0.00 | 0.00 | 0.00 | 78 | 1096.7 |
| 20260502053003 | 46 | 0 | 0.0 | 0.0 | 0.00 | 0.00 | 0.00 | 79 | 1097.2 |
| 20260502052903 | 46 | 0 | 0.0 | 0.0 | 0.00 | 0.00 | 0.00 | 78 | 1096.8 |
| 20260502052803 | 46 | 0 | 0.0 | 0.0 | 0.00 | 0.00 | 0.00 | 79 | 1097.0 |
| 20260502052703 | 46 | 0 | 0.0 | 0.0 | 0.00 | 0.00 | 0.00 | 79 | 1096.9 |
| 20260502052603 | 46 | 0 | 0.0 | 0.0 | 0.00 | 0.00 | 0.00 | 79 | 1096.8 |
| 20260502052403 | 46 | 0 | 0.0 | 0.0 | 0.00 | 0.00 | 0.00 | 80 | 1096.9 |
| 20260502052306 | 45 | 0 | 0.0 | 0.0 | 0.00 | 0.00 | 0.00 | 80 | 1096.9 |
| 20260502052203 | 45 | 0 | 0.0 | 0.0 | 0.00 | 0.00 | 0.00 | 81 | 1097.0 |
| 20260502052103 | 45 | 0 | 0.0 | 0.0 | 0.00 | 0.00 | 0.00 | 81 | 1097.1 |
| 20260502052003 | 45 | 0 | 0.0 | 0.0 | 0.00 | 0.00 | 0.00 | 81 | 1096.8 |
| 20260502051903 | 45 | 0 | 0.0 | 0.0 | 0.00 | 0.00 | 0.00 | 81 | 1097.0 |
| 20260502051803 | 44 | 0 | 0.0 | 0.0 | 0.00 | 0.00 | 0.00 | 81 | 1097.0 |
| 20260502051703 | 44 | 0 | 0.0 | 0.0 | 0.00 | 0.00 | 0.00 | 81 | 1097.2 |
| 20260502051603 | 44 | 0 | 0.0 | 0.0 | 0.00 | 0.00 | 0.00 | 81 | 1097.0 |
| 20260502051503 | 44 | 0 | 0.0 | 0.0 | 0.00 | 0.00 | 0.00 | 81 | 1097.0 |
| 20260502051403 | 44 | 0 | 0.0 | 0.0 | 0.00 | 0.00 | 0.00 | 81 | 1097.1 |
| 20260502051103 | 43 | 0 | 0.0 | 0.0 | 0.00 | 0.00 | 0.00 | 81 | 1096.9 |
| 20260502051003 | 43 | 0 | 0.0 | 0.0 | 0.00 | 0.00 | 0.00 | 82 | 1097.2 |
| 20260502050903 | 43 | 0 | 0.0 | 0.0 | 0.00 | 0.00 | 0.00 | 82 | 1097.0 |
| 20260502050803 | 43 | 0 | 0.0 | 0.0 | 0.00 | 0.00 | 0.00 | 82 | 1097.0 |
| 20260502050703 | 43 | 0 | 0.0 | 0.0 | 0.00 | 0.00 | 0.00 | 82 | 1097.0 |
| 20260502050603 | 43 | 0 | 0.0 | 0.0 | 0.00 | 0.00 | 0.00 | 82 | 1096.9 |
| 20260502050503 | 43 | 0 | 0.0 | 0.0 | 0.00 | 0.00 | 0.00 | 82 | 1096.8 |
| 20260502050403 | 43 | 0 | 0.0 | 0.0 | 0.00 | 0.00 | 0.00 | 82 | 1096.8 |
| 20260502050303 | 43 | 0 | 0.0 | 0.0 | 0.00 | 0.00 | 0.00 | 82 | 1096.8 |
| 20260502050203 | 43 | 0 | 0.0 | 0.0 | 0.00 | 0.00 | 0.00 | 82 | 1096.9 |
| 20260502050003 | 43 | 0 | 0.0 | 0.0 | 0.00 | 0.00 | 0.00 | 82 | 1096.9 |
| 20260502045903 | 43 | 0 | 0.0 | 0.0 | 0.00 | 0.00 | 0.00 | 81 | 1096.9 |
| 20260502045818 | 43 | 0 | 0.0 | 0.0 | 0.00 | 0.00 | 0.00 | 81 | 1096.9 |
| 20260502045803 | 43 | 0 | 0.0 | 0.0 | 0.00 | 0.00 | 0.00 | 81 | 1096.9 |
| 20260502045703 | 43 | 0 | 0.0 | 0.0 | 0.00 | 0.00 | 0.00 | 81 | 1096.9 |
| 20260502045503 | 43 | 0 | 0.0 | 0.0 | 0.00 | 0.00 | 0.00 | 83 | 1097.1 |
| 20260502045403 | 43 | 0 | 0.0 | 0.0 | 0.00 | 0.00 | 0.00 | 84 | 1097.0 |
| 20260502045317 | 43 | 0 | 0.0 | 0.0 | 0.00 | 0.00 | 0.00 | 84 | 1097.1 |
| 20260502045305 | 43 | 0 | 0.0 | 0.0 | 0.00 | 0.00 | 0.00 | 84 | 1097.1 |
| 20260502045203 | 43 | 0 | 0.0 | 0.0 | 0.00 | 0.00 | 0.00 | 84 | 1096.7 |
| 20260502045003 | 43 | 0 | 0.0 | 0.0 | 0.00 | 0.00 | 0.00 | 84 | 1097.2 |
| 20260502044903 | 43 | 0 | 0.0 | 0.0 | 0.00 | 0.00 | 0.00 | 85 | 1097.2 |
| 20260502044803 | 43 | 0 | 0.0 | 0.0 | 0.00 | 0.00 | 0.00 | 85 | 1097.0 |
| 20260502044703 | 43 | 0 | 0.0 | 0.0 | 0.00 | 0.00 | 0.00 | 87 | 1096.9 |
| 20260502044603 | 42 | 0 | 0.0 | 0.0 | 0.00 | 0.00 | 0.00 | 86 | 1096.9 |
| 20260502044504 | 42 | 0 | 0.0 | 0.0 | 0.00 | 0.00 | 0.00 | 86 | 1097.1 |
| 20260502044403 | 42 | 0 | 0.0 | 0.0 | 0.00 | 0.00 | 0.00 | 86 | 1097.0 |
| 20260502044303 | 42 | 0 | 0.0 | 0.0 | 0.00 | 0.00 | 0.00 | 86 | 1096.9 |
| 20260502044203 | 42 | 0 | 0.0 | 0.0 | 0.00 | 0.00 | 0.00 | 86 | 1096.9 |
| 20260502044103 | 41 | 0 | 0.0 | 0.0 | 0.00 | 0.00 | 0.00 | 86 | 1096.7 |
| 20260502044003 | 41 | 0 | 0.0 | 0.0 | 0.00 | 0.00 | 0.00 | 86 | 1097.0 |
| 20260502043703 | 40 | 0 | 0.0 | 0.0 | 0.00 | 0.00 | 0.00 | 88 | 1096.7 |
| 20260502043603 | 40 | 0 | 0.0 | 0.0 | 0.00 | 0.00 | 0.00 | 89 | 1096.9 |
| 20260502043503 | 40 | 0 | 0.0 | 0.0 | 0.00 | 0.00 | 0.00 | 89 | 1096.7 |
| 20260502043403 | 39 | 0 | 0.0 | 0.0 | 0.00 | 0.00 | 0.00 | 89 | 1097.0 |
| 20260502043303 | 39 | 0 | 0.0 | 0.0 | 0.00 | 0.00 | 0.00 | 89 | 1096.9 |
| 20260502043203 | 39 | 0 | 0.0 | 0.0 | 0.00 | 0.00 | 0.00 | 89 | 1097.1 |
| 20260502043103 | 38 | 0 | 0.0 | 0.0 | 0.00 | 0.00 | 0.00 | 89 | 1096.8 |
| 20260502043003 | 38 | 0 | 0.0 | 0.0 | 0.00 | 0.00 | 0.00 | 89 | 1096.8 |
| 20260502042903 | 38 | 0 | 0.0 | 0.0 | 0.00 | 0.00 | 0.00 | 89 | 1097.0 |
| 20260502042803 | 38 | 0 | 0.0 | 0.0 | 0.00 | 0.00 | 0.00 | 90 | 1096.9 |
| 20260502042717 | 38 | 0 | 0.0 | 0.0 | 0.00 | 0.00 | 0.00 | 90 | 1097.0 |
| 20260502042703 | 38 | 0 | 0.0 | 0.0 | 0.00 | 0.00 | 0.00 | 90 | 1097.0 |
| 20260502042603 | 38 | 0 | 0.0 | 0.0 | 0.00 | 0.00 | 0.00 | 90 | 1096.8 |
| 20260502042403 | 37 | 0 | 0.0 | 0.0 | 0.00 | 0.00 | 0.00 | 90 | 1096.8 |
| 20260502042305 | 37 | 0 | 0.0 | 0.0 | 0.00 | 0.00 | 0.00 | 90 | 1097.0 |
| 20260502042203 | 37 | 0 | 0.0 | 0.0 | 0.00 | 0.00 | 0.00 | 90 | 1097.0 |
| 20260502042103 | 36 | 0 | 0.0 | 0.0 | 0.00 | 0.00 | 0.00 | 90 | 1097.0 |
| 20260502042003 | 36 | 0 | 0.0 | 0.0 | 0.00 | 0.00 | 0.00 | 90 | 1096.8 |
| 20260502041903 | 36 | 0 | 0.0 | 0.0 | 0.00 | 0.00 | 0.00 | 90 | 1096.8 |
| 20260502041803 | 36 | 0 | 0.0 | 0.0 | 0.00 | 0.00 | 0.00 | 90 | 1096.8 |
| 20260502041703 | 36 | 0 | 0.0 | 0.0 | 0.00 | 0.00 | 0.00 | 90 | 1096.6 |
| 20260502041603 | 36 | 0 | 0.0 | 0.0 | 0.00 | 0.00 | 0.00 | 90 | 1096.9 |
| 20260502041303 | 36 | 0 | 0.0 | 0.0 | 0.00 | 0.00 | 0.00 | 90 | 1096.9 |
| 20260502041203 | 36 | 0 | 0.0 | 0.0 | 0.00 | 0.00 | 0.00 | 90 | 1097.0 |
| 20260502041103 | 36 | 0 | 0.0 | 0.0 | 0.00 | 0.00 | 0.00 | 90 | 1096.8 |
| 20260502041003 | 36 | 0 | 0.0 | 0.0 | 0.00 | 0.00 | 0.00 | 90 | 1096.6 |
| 20260502040703 | 36 | 0 | 0.0 | 0.0 | 0.00 | 0.00 | 0.00 | 89 | 1096.8 |
| 20260502040603 | 36 | 0 | 0.0 | 0.0 | 0.00 | 0.00 | 0.00 | 89 | 1096.8 |
| 20260502040503 | 36 | 0 | 0.0 | 0.0 | 0.00 | 0.00 | 0.00 | 89 | 1096.5 |
| 20260502040403 | 36 | 0 | 0.0 | 0.0 | 0.00 | 0.00 | 0.00 | 89 | 1096.9 |
| 20260502040303 | 36 | 0 | 0.0 | 0.0 | 0.00 | 0.00 | 0.00 | 90 | 1096.8 |
| 20260502040203 | 36 | 0 | 0.0 | 0.0 | 0.00 | 0.00 | 0.00 | 90 | 1096.8 |
| 20260502040003 | 36 | 0 | 0.0 | 0.0 | 0.00 | 0.00 | 0.00 | 90 | 1096.8 |
| 20260502035903 | 36 | 0 | 0.0 | 0.0 | 0.00 | 0.00 | 0.00 | 91 | 1096.8 |
| 20260502035803 | 36 | 0 | 0.0 | 0.0 | 0.00 | 0.00 | 0.00 | 91 | 1096.9 |
| 20260502035703 | 36 | 0 | 0.0 | 0.0 | 0.00 | 0.00 | 0.00 | 91 | 1096.9 |
| 20260502035603 | 36 | 0 | 0.0 | 0.0 | 0.00 | 0.00 | 0.00 | 91 | 1096.9 |
| 20260502035403 | 36 | 0 | 0.0 | 0.0 | 0.00 | 0.00 | 0.00 | 90 | 1096.7 |
| 20260502035306 | 36 | 0 | 0.0 | 0.0 | 0.00 | 0.00 | 0.00 | 89 | 1096.8 |
| 20260502035203 | 36 | 0 | 0.0 | 0.0 | 0.00 | 0.00 | 0.00 | 89 | 1096.7 |
| 20260502035103 | 36 | 0 | 0.0 | 0.0 | 0.00 | 0.00 | 0.00 | 89 | 1096.8 |
| 20260502035003 | 36 | 0 | 0.0 | 0.0 | 0.00 | 0.00 | 0.00 | 89 | 1096.7 |
| 20260502034903 | 36 | 0 | 0.0 | 0.0 | 0.00 | 0.00 | 0.00 | 89 | 1096.5 |
| 20260502034703 | 36 | 0 | 0.0 | 0.0 | 0.00 | 0.00 | 0.00 | 90 | 1096.9 |
| 20260502034603 | 36 | 0 | 0.0 | 0.0 | 0.00 | 0.00 | 0.00 | 91 | 1096.8 |
| 20260502034503 | 36 | 0 | 0.0 | 0.0 | 0.00 | 0.00 | 0.00 | 91 | 1096.7 |
| 20260502034403 | 36 | 0 | 0.0 | 0.0 | 0.00 | 0.00 | 0.00 | 91 | 1096.7 |
| 20260502034303 | 36 | 0 | 0.0 | 0.0 | 0.00 | 0.00 | 0.00 | 90 | 1096.7 |
| 20260502034103 | 36 | 0 | 0.0 | 0.0 | 0.00 | 0.00 | 0.00 | 89 | 1096.7 |
| 20260502034003 | 36 | 0 | 0.0 | 0.0 | 0.00 | 0.00 | 0.00 | 89 | 1096.7 |
| 20260502033803 | 36 | 0 | 0.0 | 0.0 | 0.00 | 0.00 | 0.00 | 89 | 1096.6 |
| 20260502033703 | 36 | 0 | 0.0 | 0.0 | 0.00 | 0.00 | 0.00 | 90 | 1096.7 |
| 20260502033603 | 36 | 0 | 0.0 | 0.0 | 0.00 | 0.00 | 0.00 | 90 | 1096.7 |
| 20260502033503 | 36 | 0 | 0.0 | 0.0 | 0.00 | 0.00 | 0.00 | 89 | 1096.7 |
| 20260502033403 | 36 | 0 | 0.0 | 0.0 | 0.00 | 0.00 | 0.00 | 89 | 1096.7 |
| 20260502033303 | 36 | 0 | 0.0 | 0.0 | 0.00 | 0.00 | 0.00 | 89 | 1096.7 |
| 20260502033203 | 36 | 0 | 0.0 | 0.0 | 0.00 | 0.00 | 0.00 | 89 | 1096.7 |
| 20260502033103 | 36 | 0 | 0.0 | 0.0 | 0.00 | 0.00 | 0.00 | 89 | 1096.6 |
| 20260502033003 | 36 | 0 | 0.0 | 0.0 | 0.00 | 0.00 | 0.00 | 90 | 1096.9 |
| 20260502032903 | 36 | 0 | 0.0 | 0.0 | 0.00 | 0.00 | 0.00 | 91 | 1096.6 |
| 20260502032803 | 36 | 0 | 0.0 | 0.0 | 0.00 | 0.00 | 0.00 | 90 | 1096.8 |
| 20260502032703 | 36 | 0 | 0.0 | 0.0 | 0.00 | 0.00 | 0.00 | 90 | 1096.8 |
| 20260502032603 | 36 | 0 | 0.0 | 0.0 | 0.00 | 0.00 | 0.00 | 90 | 1096.8 |
| 20260502032503 | 36 | 0 | 0.0 | 0.0 | 0.00 | 0.00 | 0.00 | 90 | 1096.7 |
| 20260502032305 | 35 | 0 | 0.0 | 0.0 | 0.00 | 0.00 | 0.00 | 89 | 1096.6 |
| 20260502032203 | 35 | 0 | 0.0 | 0.0 | 0.00 | 0.00 | 0.00 | 88 | 1096.7 |
| 20260502032103 | 35 | 0 | 0.0 | 0.0 | 0.00 | 0.00 | 0.00 | 88 | 1096.8 |
| 20260502032003 | 35 | 0 | 0.0 | 0.0 | 0.00 | 0.00 | 0.00 | 87 | 1096.6 |
| 20260502031803 | 35 | 0 | 0.0 | 0.0 | 0.00 | 0.00 | 0.00 | 87 | 1096.6 |
| 20260502031703 | 35 | 0 | 0.0 | 0.0 | 0.00 | 0.00 | 0.00 | 87 | 1096.9 |
| 20260502031603 | 35 | 0 | 0.0 | 0.0 | 0.00 | 0.00 | 0.00 | 87 | 1096.6 |
| 20260502031503 | 35 | 0 | 0.0 | 0.0 | 0.00 | 0.00 | 0.00 | 87 | 1096.6 |
| 20260502031403 | 36 | 0 | 0.0 | 0.0 | 0.00 | 0.00 | 0.00 | 87 | 1096.7 |
| 20260502031303 | 36 | 0 | 0.0 | 0.0 | 0.00 | 0.00 | 0.00 | 87 | 1096.8 |
| 20260502031203 | 36 | 0 | 0.0 | 0.0 | 0.00 | 0.00 | 0.00 | 87 | 1096.8 |
| 20260502031103 | 36 | 0 | 0.0 | 0.0 | 0.00 | 0.00 | 0.00 | 87 | 1096.8 |
| 20260502031003 | 36 | 0 | 0.0 | 0.0 | 0.00 | 0.00 | 0.00 | 87 | 1096.7 |
| 20260502030903 | 36 | 0 | 0.0 | 0.0 | 0.00 | 0.00 | 0.00 | 87 | 1096.7 |
| 20260502030803 | 36 | 0 | 0.0 | 0.0 | 0.00 | 0.00 | 0.00 | 87 | 1096.9 |
| 20260502030703 | 36 | 0 | 0.0 | 0.0 | 0.00 | 0.00 | 0.00 | 87 | 1096.9 |
| 20260502030603 | 36 | 0 | 0.0 | 0.0 | 0.00 | 0.00 | 0.00 | 88 | 1096.7 |
| 20260502030403 | 36 | 0 | 0.0 | 0.0 | 0.00 | 0.00 | 0.00 | 88 | 1096.6 |
| 20260502030303 | 36 | 0 | 0.0 | 0.0 | 0.00 | 0.00 | 0.00 | 88 | 1096.7 |
| 20260502030203 | 36 | 0 | 0.0 | 0.0 | 0.00 | 0.00 | 0.00 | 88 | 1096.9 |
| 20260502030003 | 36 | 0 | 0.0 | 0.0 | 0.00 | 0.00 | 0.00 | 87 | 1096.6 |
| 20260502025903 | 36 | 0 | 0.0 | 0.0 | 0.00 | 0.00 | 0.00 | 88 | 1096.9 |
| 20260502025803 | 36 | 0 | 0.0 | 0.0 | 0.00 | 0.00 | 0.00 | 88 | 1096.9 |
| 20260502025703 | 36 | 0 | 0.0 | 0.0 | 0.00 | 0.00 | 0.00 | 88 | 1097.0 |
| 20260502025603 | 36 | 0 | 0.0 | 0.0 | 0.00 | 0.00 | 0.00 | 87 | 1096.7 |
| 20260502025503 | 36 | 0 | 0.0 | 0.0 | 0.00 | 0.00 | 0.00 | 87 | 1096.7 |
| 20260502025403 | 36 | 0 | 0.0 | 0.0 | 0.00 | 0.00 | 0.00 | 87 | 1096.8 |
| 20260502025306 | 36 | 0 | 0.0 | 0.0 | 0.00 | 0.00 | 0.00 | 87 | 1096.9 |
| 20260502025203 | 36 | 0 | 0.0 | 0.0 | 0.00 | 0.00 | 0.00 | 87 | 1096.7 |
| 20260502025003 | 36 | 0 | 0.0 | 0.0 | 0.00 | 0.00 | 0.00 | 87 | 1096.8 |
| 20260502024903 | 36 | 0 | 0.0 | 0.0 | 0.00 | 0.00 | 0.00 | 86 | 1096.7 |
| 20260502024817 | 36 | 0 | 0.0 | 0.0 | 0.00 | 0.00 | 0.00 | 86 | 1096.8 |
| 20260502024803 | 36 | 0 | 0.0 | 0.0 | 0.00 | 0.00 | 0.00 | 87 | 1096.8 |
| 20260502024703 | 36 | 0 | 0.0 | 0.0 | 0.00 | 0.00 | 0.00 | 87 | 1097.1 |
| 20260502024503 | 36 | 0 | 0.0 | 0.0 | 0.00 | 0.00 | 0.00 | 87 | 1096.8 |
| 20260502024403 | 36 | 0 | 0.0 | 0.0 | 0.00 | 0.00 | 0.00 | 87 | 1097.0 |
| 20260502024303 | 36 | 0 | 0.0 | 0.0 | 0.00 | 0.00 | 0.00 | 87 | 1096.7 |
| 20260502024203 | 36 | 0 | 0.0 | 0.0 | 0.00 | 0.00 | 0.00 | 87 | 1096.8 |
| 20260502024003 | 37 | 0 | 0.0 | 0.0 | 0.00 | 0.00 | 0.00 | 87 | 1097.0 |
| 20260502023903 | 37 | 0 | 0.0 | 0.0 | 0.00 | 0.00 | 0.00 | 87 | 1096.9 |
| 20260502023803 | 37 | 0 | 0.0 | 0.0 | 0.00 | 0.00 | 0.00 | 87 | 1097.0 |
| 20260502023718 | 37 | 0 | 0.0 | 0.0 | 0.00 | 0.00 | 0.00 | 87 | 1097.0 |
| 20260502023403 | 37 | 0 | 0.0 | 0.0 | 0.00 | 0.00 | 0.00 | 88 | 1097.0 |
| 20260502023303 | 37 | 0 | 0.0 | 0.0 | 0.00 | 0.00 | 0.00 | 88 | 1096.8 |
| 20260502023203 | 37 | 0 | 0.0 | 0.0 | 0.00 | 0.00 | 0.00 | 89 | 1096.9 |
| 20260502023103 | 37 | 0 | 0.0 | 0.0 | 0.00 | 0.00 | 0.00 | 88 | 1096.6 |
| 20260502023003 | 37 | 0 | 0.0 | 0.0 | 0.00 | 0.00 | 0.00 | 87 | 1096.9 |
| 20260502022903 | 37 | 0 | 0.0 | 0.0 | 0.00 | 0.00 | 0.00 | 87 | 1097.1 |
| 20260502022803 | 37 | 0 | 0.0 | 0.0 | 0.00 | 0.00 | 0.00 | 87 | 1097.1 |
| 20260502022703 | 37 | 0 | 0.0 | 0.0 | 0.00 | 0.00 | 0.00 | 87 | 1096.8 |
| 20260502022603 | 37 | 0 | 0.0 | 0.0 | 0.00 | 0.00 | 0.00 | 87 | 1096.9 |
| 20260502022403 | 37 | 0 | 0.0 | 0.0 | 0.00 | 0.00 | 0.00 | 88 | 1096.8 |
| 20260502022306 | 37 | 0 | 0.0 | 0.0 | 0.00 | 0.00 | 0.00 | 89 | 1097.1 |
| 20260502022203 | 37 | 0 | 0.0 | 0.0 | 0.00 | 0.00 | 0.00 | 88 | 1097.1 |
| 20260502022103 | 37 | 0 | 0.0 | 0.0 | 0.00 | 0.00 | 0.00 | 87 | 1096.7 |
| 20260502022003 | 37 | 0 | 0.0 | 0.0 | 0.00 | 0.00 | 0.00 | 87 | 1097.0 |
| 20260502021903 | 37 | 0 | 0.0 | 0.0 | 0.00 | 0.00 | 0.00 | 87 | 1096.9 |
| 20260502021803 | 37 | 0 | 0.0 | 0.0 | 0.00 | 0.00 | 0.00 | 87 | 1096.7 |
| 20260502021703 | 37 | 0 | 0.0 | 0.0 | 0.00 | 0.00 | 0.00 | 87 | 1097.1 |
| 20260502021603 | 37 | 0 | 0.0 | 0.0 | 0.00 | 0.00 | 0.00 | 87 | 1097.0 |
| 20260502021503 | 37 | 0 | 0.0 | 0.0 | 0.00 | 0.00 | 0.00 | 86 | 1096.9 |
| 20260502021403 | 37 | 0 | 0.0 | 0.0 | 0.00 | 0.00 | 0.00 | 86 | 1096.7 |
| 20260502021203 | 37 | 0 | 0.0 | 0.0 | 0.00 | 0.00 | 0.00 | 87 | 1096.7 |
| 20260502021103 | 37 | 0 | 0.0 | 0.0 | 0.00 | 0.00 | 0.00 | 87 | 1097.0 |
| 20260502020903 | 37 | 0 | 0.0 | 0.0 | 0.00 | 0.00 | 0.00 | 87 | 1096.9 |
| 20260502020803 | 37 | 0 | 0.0 | 0.0 | 0.00 | 0.00 | 0.00 | 87 | 1096.8 |
| 20260502020703 | 37 | 0 | 0.0 | 0.0 | 0.00 | 0.00 | 0.00 | 88 | 1096.9 |
| 20260502020603 | 37 | 0 | 0.0 | 0.0 | 0.00 | 0.00 | 0.00 | 87 | 1097.0 |
| 20260502020503 | 37 | 0 | 0.0 | 0.0 | 0.00 | 0.00 | 0.00 | 86 | 1096.9 |
| 20260502020403 | 37 | 0 | 0.0 | 0.0 | 0.00 | 0.00 | 0.00 | 86 | 1097.1 |
| 20260502020303 | 37 | 0 | 0.0 | 0.0 | 0.00 | 0.00 | 0.00 | 86 | 1096.8 |
| 20260502020203 | 37 | 0 | 0.0 | 0.0 | 0.00 | 0.00 | 0.00 | 86 | 1097.0 |
| 20260502020003 | 37 | 0 | 0.0 | 0.0 | 0.00 | 0.00 | 0.00 | 86 | 1096.8 |
| 20260502015903 | 37 | 0 | 0.0 | 0.0 | 0.00 | 0.00 | 0.00 | 85 | 1096.8 |
| 20260502015703 | 37 | 0 | 0.0 | 0.0 | 0.00 | 0.00 | 0.00 | 85 | 1097.2 |
| 20260502015603 | 37 | 0 | 0.0 | 0.0 | 0.00 | 0.00 | 0.00 | 85 | 1097.0 |
| 20260502015503 | 37 | 0 | 0.0 | 0.0 | 0.00 | 0.00 | 0.00 | 85 | 1097.0 |
| 20260502015403 | 38 | 0 | 0.0 | 0.0 | 0.00 | 0.00 | 0.00 | 85 | 1097.0 |
| 20260502015305 | 38 | 0 | 0.0 | 0.0 | 0.00 | 0.00 | 0.00 | 85 | 1097.1 |
| 20260502015103 | 38 | 0 | 0.0 | 0.0 | 0.00 | 0.00 | 0.00 | 85 | 1097.2 |
| 20260502015003 | 38 | 0 | 0.0 | 0.0 | 0.00 | 0.00 | 0.00 | 85 | 1097.2 |
| 20260502014903 | 38 | 0 | 0.0 | 0.0 | 0.00 | 0.00 | 0.00 | 85 | 1097.2 |
| 20260502014803 | 38 | 0 | 0.0 | 0.0 | 0.00 | 0.00 | 0.00 | 85 | 1097.2 |
| 20260502014703 | 38 | 0 | 0.0 | 0.0 | 0.00 | 0.00 | 0.00 | 86 | 1097.1 |
| 20260502014603 | 38 | 0 | 0.0 | 0.0 | 0.00 | 0.00 | 0.00 | 86 | 1097.1 |
| 20260502014503 | 38 | 0 | 0.0 | 0.0 | 0.00 | 0.00 | 0.00 | 86 | 1097.1 |
| 20260502014303 | 38 | 0 | 0.0 | 0.0 | 0.00 | 0.00 | 0.00 | 86 | 1097.0 |
| 20260502014203 | 38 | 0 | 0.0 | 0.0 | 0.00 | 0.00 | 0.00 | 86 | 1097.1 |
| 20260502014103 | 38 | 0 | 0.0 | 0.0 | 0.00 | 0.00 | 0.00 | 86 | 1097.1 |
| 20260502014003 | 38 | 0 | 0.0 | 0.0 | 0.00 | 0.00 | 0.00 | 86 | 1097.1 |
| 20260502013903 | 38 | 0 | 0.0 | 0.0 | 0.00 | 0.00 | 0.00 | 86 | 1096.9 |
| 20260502013803 | 38 | 0 | 0.0 | 0.0 | 0.00 | 0.00 | 0.00 | 86 | 1097.1 |
| 20260502013703 | 38 | 0 | 0.0 | 0.0 | 0.00 | 0.00 | 0.00 | 86 | 1097.3 |
| 20260502013603 | 38 | 0 | 0.0 | 0.0 | 0.00 | 0.00 | 0.00 | 86 | 1096.9 |
| 20260502013503 | 38 | 0 | 0.0 | 0.0 | 0.00 | 0.00 | 0.00 | 86 | 1097.1 |
| 20260502013403 | 38 | 0 | 0.0 | 0.0 | 0.00 | 0.00 | 0.00 | 85 | 1097.3 |
| 20260502013303 | 38 | 0 | 0.0 | 0.0 | 0.00 | 0.00 | 0.00 | 86 | 1097.1 |
| 20260502013103 | 38 | 340 | 0.0 | 2.0 | 0.00 | 0.00 | 0.00 | 86 | 1097.2 |
| 20260502013003 | 38 | 340 | 0.0 | 2.0 | 0.00 | 0.00 | 0.00 | 86 | 1096.9 |
| 20260502012903 | 38 | 340 | 0.0 | 2.0 | 0.00 | 0.00 | 0.00 | 88 | 1097.2 |
| 20260502012803 | 38 | 340 | 0.0 | 2.0 | 0.00 | 0.00 | 0.00 | 87 | 1097.0 |
| 20260502012703 | 38 | 340 | 0.0 | 2.0 | 0.00 | 0.00 | 0.00 | 86 | 1097.1 |
| 20260502012603 | 38 | 340 | 0.0 | 2.0 | 0.00 | 0.00 | 0.00 | 86 | 1097.1 |
| 20260502012503 | 38 | 340 | 0.0 | 2.0 | 0.00 | 0.00 | 0.00 | 86 | 1097.1 |
| 20260502012403 | 38 | 340 | 0.0 | 2.0 | 0.00 | 0.00 | 0.00 | 85 | 1097.1 |
| 20260502012306 | 39 | 340 | 0.0 | 2.0 | 0.00 | 0.00 | 0.00 | 85 | 1097.1 |
| 20260502012203 | 39 | 327 | 0.0 | 2.0 | 0.00 | 0.00 | 0.00 | 85 | 1097.0 |
| 20260502012103 | 39 | 0 | 0.0 | 0.0 | 0.00 | 0.00 | 0.00 | 85 | 1097.1 |
| 20260502012003 | 39 | 0 | 0.0 | 0.0 | 0.00 | 0.00 | 0.00 | 85 | 1097.2 |
| 20260502011916 | 39 | 0 | 0.0 | 0.0 | 0.00 | 0.00 | 0.00 | 85 | 1097.2 |
| 20260502011603 | 39 | 0 | 0.0 | 0.0 | 0.00 | 0.00 | 0.00 | 85 | 1097.3 |
| 20260502011503 | 39 | 0 | 0.0 | 0.0 | 0.00 | 0.00 | 0.00 | 85 | 1097.0 |
| 20260502011403 | 39 | 0 | 0.0 | 0.0 | 0.00 | 0.00 | 0.00 | 86 | 1097.4 |
| 20260502011303 | 39 | 0 | 0.0 | 0.0 | 0.00 | 0.00 | 0.00 | 86 | 1097.1 |
| 20260502011203 | 39 | 0 | 0.0 | 0.0 | 0.00 | 0.00 | 0.00 | 86 | 1097.3 |
| 20260502011103 | 39 | 0 | 0.0 | 0.0 | 0.00 | 0.00 | 0.00 | 86 | 1097.3 |
| 20260502011003 | 39 | 0 | 0.0 | 0.0 | 0.00 | 0.00 | 0.00 | 86 | 1097.3 |
| 20260502010903 | 39 | 0 | 0.0 | 0.0 | 0.00 | 0.00 | 0.00 | 87 | 1097.1 |
| 20260502010803 | 39 | 18 | 0.0 | 1.0 | 0.00 | 0.00 | 0.00 | 86 | 1097.3 |
| 20260502010603 | 39 | 18 | 0.0 | 1.0 | 0.00 | 0.00 | 0.00 | 85 | 1097.3 |
| 20260502010503 | 39 | 21 | 0.0 | 1.0 | 0.00 | 0.00 | 0.00 | 85 | 1097.2 |
| 20260502010403 | 39 | 23 | 0.0 | 1.0 | 0.00 | 0.00 | 0.00 | 85 | 1097.2 |
| 20260502010303 | 39 | 25 | 0.0 | 1.0 | 0.00 | 0.00 | 0.00 | 85 | 1097.3 |
| 20260502010203 | 39 | 26 | 0.0 | 1.0 | 0.00 | 0.00 | 0.00 | 85 | 1097.4 |
| 20260502010003 | 39 | 26 | 0.0 | 1.0 | 0.00 | 0.00 | 0.00 | 85 | 1097.2 |
| 20260502005903 | 39 | 26 | 0.0 | 1.0 | 0.00 | 0.00 | 0.00 | 85 | 1097.3 |
| 20260502005803 | 39 | 27 | 0.0 | 1.0 | 0.00 | 0.00 | 0.00 | 85 | 1097.3 |
| 20260502005703 | 39 | 31 | 0.0 | 1.0 | 0.00 | 0.00 | 0.00 | 85 | 1097.3 |
| 20260502005603 | 39 | 34 | 0.0 | 1.0 | 0.00 | 0.00 | 0.00 | 85 | 1097.4 |
| 20260502005503 | 39 | 33 | 0.0 | 1.0 | 0.00 | 0.00 | 0.00 | 85 | 1097.2 |
| 20260502005403 | 39 | 32 | 0.0 | 1.0 | 0.00 | 0.00 | 0.00 | 85 | 1097.3 |
| 20260502005306 | 40 | 30 | 0.0 | 1.0 | 0.00 | 0.00 | 0.00 | 85 | 1097.2 |
| 20260502005203 | 40 | 0 | 0.0 | 0.0 | 0.00 | 0.00 | 0.00 | 85 | 1097.2 |
| 20260502005103 | 40 | 0 | 0.0 | 0.0 | 0.00 | 0.00 | 0.00 | 85 | 1097.4 |
| 20260502005003 | 40 | 0 | 0.0 | 0.0 | 0.00 | 0.00 | 0.00 | 85 | 1097.5 |
| 20260502004903 | 40 | 0 | 0.0 | 0.0 | 0.00 | 0.00 | 0.00 | 85 | 1097.3 |
| 20260502004817 | 40 | 0 | 0.0 | 0.0 | 0.00 | 0.00 | 0.00 | 85 | 1097.3 |
| 20260502004703 | 40 | 0 | 0.0 | 0.0 | 0.00 | 0.00 | 0.00 | 85 | 1097.5 |
| 20260502004503 | 40 | 0 | 0.0 | 0.0 | 0.00 | 0.00 | 0.00 | 84 | 1097.2 |
| 20260502004403 | 40 | 343 | 0.0 | 1.0 | 0.00 | 0.00 | 0.00 | 84 | 1097.4 |
| 20260502004303 | 40 | 342 | 0.0 | 1.0 | 0.00 | 0.00 | 0.00 | 84 | 1097.4 |
| 20260502004203 | 40 | 341 | 0.0 | 1.0 | 0.00 | 0.00 | 0.00 | 84 | 1097.5 |
| 20260502004103 | 40 | 341 | 0.0 | 1.0 | 0.00 | 0.00 | 0.00 | 84 | 1097.5 |
| 20260502004018 | 40 | 341 | 0.0 | 1.0 | 0.00 | 0.00 | 0.00 | 84 | 1097.3 |
| 20260502003903 | 40 | 341 | 0.0 | 1.0 | 0.00 | 0.00 | 0.00 | 84 | 1097.4 |
| 20260502003703 | 40 | 341 | 0.0 | 1.0 | 0.00 | 0.00 | 0.00 | 84 | 1097.4 |
| 20260502003618 | 40 | 334 | 0.0 | 1.0 | 0.00 | 0.00 | 0.00 | 85 | 1097.5 |
| 20260502003603 | 40 | 324 | 0.0 | 2.0 | 0.00 | 0.00 | 0.00 | 85 | 1097.5 |
| 20260502003503 | 40 | 309 | 0.0 | 2.0 | 0.00 | 0.00 | 0.00 | 85 | 1097.4 |
| 20260502003303 | 40 | 295 | 0.0 | 2.0 | 0.00 | 0.00 | 0.00 | 84 | 1097.3 |
| 20260502003203 | 40 | 288 | 0.0 | 2.0 | 0.00 | 0.00 | 0.00 | 85 | 1097.4 |
| 20260502003103 | 40 | 288 | 0.0 | 2.0 | 0.00 | 0.00 | 0.00 | 84 | 1097.2 |
| 20260502003003 | 40 | 288 | 0.0 | 2.0 | 0.00 | 0.00 | 0.00 | 85 | 1097.2 |
| 20260502002903 | 40 | 288 | 0.0 | 2.0 | 0.00 | 0.00 | 0.00 | 85 | 1097.5 |
| 20260502002803 | 40 | 286 | 0.0 | 2.0 | 0.00 | 0.00 | 0.00 | 83 | 1097.3 |
| 20260502002717 | 40 | 285 | 0.0 | 2.0 | 0.00 | 0.00 | 0.00 | 83 | 1097.3 |
| 20260502002703 | 40 | 289 | 0.0 | 2.0 | 0.00 | 0.00 | 0.00 | 83 | 1097.3 |
| 20260502002618 | 40 | 293 | 0.0 | 2.0 | 0.00 | 0.00 | 0.00 | 84 | 1097.3 |
| 20260502002603 | 40 | 292 | 0.0 | 2.0 | 0.00 | 0.00 | 0.00 | 84 | 1097.3 |
| 20260502002317 | 41 | 301 | 1.0 | 3.0 | 0.00 | 0.00 | 0.00 | 84 | 1097.3 |
| 20260502002305 | 41 | 299 | 1.0 | 3.0 | 0.00 | 0.00 | 0.00 | 84 | 1097.3 |
| 20260502002203 | 41 | 294 | 1.0 | 3.0 | 0.00 | 0.00 | 0.00 | 84 | 1097.4 |
| 20260502002003 | 41 | 291 | 1.0 | 3.0 | 0.00 | 0.00 | 0.00 | 84 | 1097.5 |
| 20260502001903 | 41 | 294 | 1.0 | 3.0 | 0.00 | 0.00 | 0.00 | 84 | 1097.3 |
| 20260502001803 | 41 | 298 | 1.0 | 3.0 | 0.00 | 0.00 | 0.00 | 84 | 1097.5 |
| 20260502001703 | 41 | 301 | 1.0 | 3.0 | 0.00 | 0.00 | 0.00 | 84 | 1097.4 |
| 20260502001603 | 41 | 303 | 1.0 | 3.0 | 0.00 | 0.00 | 0.00 | 84 | 1097.4 |
| 20260502001503 | 41 | 308 | 1.0 | 2.0 | 0.00 | 0.00 | 0.00 | 84 | 1097.5 |
| 20260502001403 | 41 | 313 | 1.0 | 3.0 | 0.00 | 0.00 | 0.00 | 84 | 1097.3 |
| 20260502001303 | 41 | 320 | 1.0 | 3.0 | 0.00 | 0.00 | 0.00 | 84 | 1097.3 |
| 20260502001203 | 41 | 328 | 1.0 | 3.0 | 0.00 | 0.00 | 0.00 | 84 | 1097.4 |
| 20260502001103 | 41 | 335 | 1.0 | 3.0 | 0.00 | 0.00 | 0.00 | 85 | 1097.4 |
| 20260502001003 | 41 | 338 | 1.0 | 3.0 | 0.00 | 0.00 | 0.00 | 84 | 1097.4 |
| 20260502000903 | 41 | 339 | 1.0 | 3.0 | 0.00 | 0.00 | 0.00 | 84 | 1097.4 |
| 20260502000803 | 41 | 339 | 1.0 | 3.0 | 0.00 | 0.00 | 0.00 | 84 | 1097.3 |
| 20260502000703 | 41 | 341 | 1.0 | 3.0 | 0.00 | 0.00 | 0.00 | 84 | 1097.4 |
| 20260502000603 | 41 | 342 | 1.0 | 3.0 | 0.00 | 0.00 | 0.00 | 85 | 1097.4 |
| 20260502000503 | 41 | 342 | 1.0 | 3.0 | 0.00 | 0.00 | 0.00 | 84 | 1097.3 |
| 20260502000403 | 41 | 345 | 0.0 | 2.0 | 0.00 | 0.00 | 0.00 | 85 | 1097.3 |
| 20260502000303 | 41 | 345 | 0.0 | 2.0 | 0.00 | 0.00 | 0.00 | 83 | 1097.6 |
| 20260502000204 | 41 | 345 | 0.0 | 2.0 | 0.00 | 0.00 | 0.00 | 83 | 1097.4 |
| 20260502000003 | 41 | 344 | 0.0 | 2.0 | 0.00 | 0.00 | 0.00 | 84 | 1097.4 |
| 20260501235903 | 41 | 344 | 0.0 | 2.0 | 0.00 | 0.00 | 0.00 | 84 | 1097.4 |
| 20260501235803 | 41 | 10 | 0.0 | 2.0 | 0.00 | 0.00 | 0.00 | 84 | 1097.6 |
| 20260501235703 | 41 | 0 | 0.0 | 0.0 | 0.00 | 0.00 | 0.00 | 85 | 1097.4 |
| 20260501235603 | 41 | 0 | 0.0 | 0.0 | 0.00 | 0.00 | 0.00 | 83 | 1097.5 |
| 20260501235305 | 41 | 0 | 0.0 | 0.0 | 0.00 | 0.00 | 0.00 | 83 | 1097.4 |
| 20260501235203 | 41 | 0 | 0.0 | 0.0 | 0.00 | 0.00 | 0.00 | 83 | 1097.6 |
| 20260501235103 | 41 | 0 | 0.0 | 0.0 | 0.00 | 0.00 | 0.00 | 84 | 1097.5 |
| 20260501234903 | 41 | 0 | 0.0 | 0.0 | 0.00 | 0.00 | 0.00 | 84 | 1097.6 |
| 20260501234803 | 41 | 0 | 0.0 | 0.0 | 0.00 | 0.00 | 0.00 | 83 | 1097.5 |
| 20260501234703 | 41 | 0 | 0.0 | 0.0 | 0.00 | 0.00 | 0.00 | 83 | 1097.4 |
| 20260501234603 | 41 | 0 | 0.0 | 0.0 | 0.00 | 0.00 | 0.00 | 83 | 1097.5 |
| 20260501234518 | 41 | 337 | 0.0 | 1.0 | 0.00 | 0.00 | 0.00 | 82 | 1097.5 |
| 20260501234503 | 41 | 336 | 0.0 | 1.0 | 0.00 | 0.00 | 0.00 | 82 | 1097.5 |
| 20260501234403 | 41 | 333 | 0.0 | 1.0 | 0.00 | 0.00 | 0.00 | 83 | 1097.3 |
| 20260501234203 | 41 | 330 | 0.0 | 1.0 | 0.00 | 0.00 | 0.00 | 82 | 1097.4 |
| 20260501234103 | 41 | 335 | 0.0 | 2.0 | 0.00 | 0.00 | 0.00 | 83 | 1097.2 |
| 20260501234003 | 41 | 337 | 0.0 | 2.0 | 0.00 | 0.00 | 0.00 | 83 | 1097.4 |
| 20260501233903 | 41 | 336 | 0.0 | 2.0 | 0.00 | 0.00 | 0.00 | 83 | 1097.5 |
| 20260501233803 | 41 | 333 | 1.0 | 2.0 | 0.00 | 0.00 | 0.00 | 83 | 1097.4 |
| 20260501233703 | 41 | 333 | 1.0 | 2.0 | 0.00 | 0.00 | 0.00 | 83 | 1097.5 |
| 20260501233603 | 41 | 334 | 1.0 | 2.0 | 0.00 | 0.00 | 0.00 | 83 | 1097.5 |
| 20260501233503 | 42 | 334 | 1.0 | 2.0 | 0.00 | 0.00 | 0.00 | 83 | 1097.2 |
| 20260501233403 | 42 | 334 | 1.0 | 2.0 | 0.00 | 0.00 | 0.00 | 82 | 1097.5 |
| 20260501233303 | 42 | 335 | 1.0 | 2.0 | 0.00 | 0.00 | 0.00 | 82 | 1097.4 |
| 20260501233203 | 42 | 336 | 1.0 | 2.0 | 0.00 | 0.00 | 0.00 | 83 | 1097.4 |
| 20260501233116 | 42 | 334 | 1.0 | 2.0 | 0.00 | 0.00 | 0.00 | 83 | 1097.4 |
| 20260501233103 | 42 | 335 | 1.0 | 2.0 | 0.00 | 0.00 | 0.00 | 83 | 1097.4 |
| 20260501233003 | 42 | 334 | 1.0 | 2.0 | 0.00 | 0.00 | 0.00 | 83 | 1097.5 |
| 20260501232918 | 42 | 334 | 1.0 | 2.0 | 0.00 | 0.00 | 0.00 | 83 | 1097.3 |
| 20260501232803 | 42 | 336 | 1.0 | 2.0 | 0.00 | 0.00 | 0.00 | 84 | 1097.5 |
| 20260501232603 | 42 | 337 | 0.0 | 2.0 | 0.00 | 0.00 | 0.00 | 84 | 1097.6 |
| 20260501232503 | 42 | 338 | 0.0 | 2.0 | 0.00 | 0.00 | 0.00 | 84 | 1097.4 |
| 20260501232403 | 42 | 338 | 0.0 | 2.0 | 0.00 | 0.00 | 0.00 | 83 | 1097.5 |
| 20260501232305 | 42 | 338 | 1.0 | 2.0 | 0.00 | 0.00 | 0.00 | 83 | 1097.5 |
| 20260501232203 | 42 | 337 | 1.0 | 2.0 | 0.00 | 0.00 | 0.00 | 83 | 1097.6 |
| 20260501232103 | 42 | 338 | 0.0 | 2.0 | 0.00 | 0.00 | 0.00 | 83 | 1097.4 |
| 20260501232003 | 42 | 338 | 0.0 | 2.0 | 0.00 | 0.00 | 0.00 | 82 | 1097.5 |
| 20260501231903 | 42 | 338 | 0.0 | 2.0 | 0.00 | 0.00 | 0.00 | 82 | 1097.5 |
| 20260501231803 | 42 | 338 | 0.0 | 2.0 | 0.00 | 0.00 | 0.00 | 82 | 1097.4 |
| 20260501231617 | 42 | 338 | 0.0 | 2.0 | 0.00 | 0.00 | 0.00 | 83 | 1097.2 |
| 20260501231503 | 42 | 338 | 0.0 | 2.0 | 0.00 | 0.00 | 0.00 | 84 | 1097.4 |
| 20260501231303 | 42 | 354 | 0.0 | 2.0 | 0.00 | 0.00 | 0.00 | 81 | 1097.5 |
| 20260501231203 | 42 | 358 | 0.0 | 2.0 | 0.00 | 0.00 | 0.00 | 81 | 1097.6 |
| 20260501231103 | 42 | 359 | 1.0 | 2.0 | 0.00 | 0.00 | 0.00 | 82 | 1097.7 |
| 20260501231003 | 42 | 358 | 1.0 | 2.0 | 0.00 | 0.00 | 0.00 | 82 | 1097.5 |
| 20260501230903 | 42 | 356 | 1.0 | 3.0 | 0.00 | 0.00 | 0.00 | 82 | 1097.6 |
| 20260501230803 | 42 | 358 | 1.0 | 3.0 | 0.00 | 0.00 | 0.00 | 82 | 1097.5 |
| 20260501230703 | 42 | 357 | 1.0 | 3.0 | 0.00 | 0.00 | 0.00 | 82 | 1097.8 |
| 20260501230603 | 42 | 356 | 1.0 | 3.0 | 0.00 | 0.00 | 0.00 | 82 | 1097.7 |
| 20260501230518 | 42 | 354 | 2.0 | 3.0 | 0.00 | 0.00 | 0.00 | 82 | 1097.8 |
| 20260501230403 | 42 | 351 | 2.0 | 3.0 | 0.00 | 0.00 | 0.00 | 82 | 1097.8 |
| 20260501230203 | 42 | 347 | 2.0 | 3.0 | 0.00 | 0.00 | 0.00 | 82 | 1097.8 |
| 20260501230118 | 42 | 346 | 2.0 | 3.0 | 0.00 | 0.00 | 0.00 | 82 | 1097.7 |
| 20260501230003 | 42 | 344 | 2.0 | 3.0 | 0.00 | 0.00 | 0.00 | 83 | 1097.9 |
| 20260501225803 | 42 | 340 | 1.0 | 3.0 | 0.00 | 0.00 | 0.00 | 83 | 1097.7 |
| 20260501225703 | 42 | 337 | 1.0 | 3.0 | 0.00 | 0.00 | 0.00 | 83 | 1097.7 |
| 20260501225603 | 42 | 337 | 1.0 | 3.0 | 0.00 | 0.00 | 0.00 | 83 | 1098.1 |
| 20260501225503 | 42 | 336 | 1.0 | 3.0 | 0.00 | 0.00 | 0.00 | 82 | 1097.6 |
| 20260501225403 | 42 | 335 | 1.0 | 3.0 | 0.00 | 0.00 | 0.00 | 82 | 1097.8 |
| 20260501225305 | 42 | 336 | 1.0 | 2.0 | 0.00 | 0.00 | 0.00 | 82 | 1097.9 |
| 20260501225203 | 42 | 340 | 1.0 | 2.0 | 0.00 | 0.00 | 0.00 | 82 | 1097.7 |
| 20260501225103 | 42 | 341 | 1.0 | 2.0 | 0.00 | 0.00 | 0.00 | 82 | 1097.7 |
| 20260501225003 | 42 | 342 | 1.0 | 2.0 | 0.00 | 0.00 | 0.00 | 82 | 1097.8 |
| 20260501224903 | 42 | 342 | 1.0 | 2.0 | 0.00 | 0.00 | 0.00 | 82 | 1097.9 |
| 20260501224717 | 42 | 343 | 1.0 | 2.0 | 0.00 | 0.00 | 0.00 | 82 | 1097.8 |
| 20260501224603 | 42 | 344 | 1.0 | 2.0 | 0.00 | 0.00 | 0.00 | 81 | 1097.8 |
| 20260501224403 | 42 | 345 | 0.0 | 2.0 | 0.00 | 0.00 | 0.00 | 81 | 1097.8 |
| 20260501224303 | 42 | 346 | 0.0 | 2.0 | 0.00 | 0.00 | 0.00 | 80 | 1097.7 |
| 20260501224203 | 42 | 343 | 0.0 | 2.0 | 0.00 | 0.00 | 0.00 | 81 | 1097.7 |
| 20260501224103 | 42 | 339 | 0.0 | 2.0 | 0.00 | 0.00 | 0.00 | 81 | 1097.7 |
| 20260501224003 | 42 | 338 | 0.0 | 2.0 | 0.00 | 0.00 | 0.00 | 81 | 1097.7 |
| 20260501223803 | 42 | 0 | 0.0 | 0.0 | 0.00 | 0.00 | 0.00 | 81 | 1097.8 |
| 20260501223703 | 42 | 0 | 0.0 | 0.0 | 0.00 | 0.00 | 0.00 | 82 | 1097.7 |
| 20260501223603 | 42 | 0 | 0.0 | 0.0 | 0.00 | 0.00 | 0.00 | 81 | 1097.8 |
| 20260501223503 | 42 | 0 | 0.0 | 0.0 | 0.00 | 0.00 | 0.00 | 81 | 1097.9 |
| 20260501223403 | 42 | 0 | 0.0 | 0.0 | 0.00 | 0.00 | 0.00 | 80 | 1097.8 |
| 20260501223303 | 42 | 359 | 0.0 | 1.0 | 0.00 | 0.00 | 0.00 | 80 | 1097.8 |
| 20260501223203 | 42 | 358 | 0.0 | 1.0 | 0.00 | 0.00 | 0.00 | 80 | 1097.8 |
| 20260501223103 | 42 | 350 | 0.0 | 2.0 | 0.00 | 0.00 | 0.00 | 80 | 1097.9 |
| 20260501222903 | 42 | 348 | 0.0 | 2.0 | 0.00 | 0.00 | 0.00 | 80 | 1098.1 |
| 20260501222803 | 42 | 348 | 0.0 | 2.0 | 0.00 | 0.00 | 0.00 | 80 | 1097.9 |
| 20260501222703 | 42 | 348 | 0.0 | 2.0 | 0.00 | 0.00 | 0.00 | 80 | 1098.1 |
| 20260501222503 | 43 | 348 | 0.0 | 2.0 | 0.00 | 0.00 | 0.00 | 80 | 1097.8 |
| 20260501222403 | 43 | 348 | 0.0 | 2.0 | 0.00 | 0.00 | 0.00 | 80 | 1097.8 |
| 20260501222103 | 43 | 340 | 0.0 | 2.0 | 0.00 | 0.00 | 0.00 | 80 | 1097.9 |
| 20260501222003 | 43 | 0 | 0.0 | 0.0 | 0.00 | 0.00 | 0.00 | 80 | 1098.1 |
| 20260501221903 | 43 | 0 | 0.0 | 0.0 | 0.00 | 0.00 | 0.00 | 80 | 1098.1 |
| 20260501221803 | 43 | 0 | 0.0 | 0.0 | 0.00 | 0.00 | 0.00 | 80 | 1097.9 |
| 20260501221703 | 43 | 0 | 0.0 | 0.0 | 0.00 | 0.00 | 0.00 | 80 | 1098.1 |
| 20260501221605 | 43 | 0 | 0.0 | 0.0 | 0.00 | 0.00 | 0.00 | 81 | 1097.8 |
| 20260501221503 | 43 | 0 | 0.0 | 0.0 | 0.00 | 0.00 | 0.00 | 80 | 1097.9 |
| 20260501221403 | 43 | 0 | 0.0 | 0.0 | 0.00 | 0.00 | 0.00 | 80 | 1097.9 |
| 20260501221303 | 43 | 0 | 0.0 | 0.0 | 0.00 | 0.00 | 0.00 | 80 | 1097.7 |
| 20260501221103 | 43 | 0 | 0.0 | 0.0 | 0.00 | 0.00 | 0.00 | 81 | 1098.2 |
| 20260501221003 | 43 | 0 | 0.0 | 0.0 | 0.00 | 0.00 | 0.00 | 82 | 1097.9 |
| 20260501220903 | 43 | 0 | 0.0 | 0.0 | 0.00 | 0.00 | 0.00 | 79 | 1097.9 |
| 20260501220803 | 43 | 0 | 0.0 | 0.0 | 0.00 | 0.00 | 0.00 | 80 | 1097.9 |
| 20260501220703 | 43 | 0 | 0.0 | 0.0 | 0.00 | 0.00 | 0.00 | 80 | 1097.9 |
| 20260501220603 | 43 | 0 | 0.0 | 0.0 | 0.00 | 0.00 | 0.00 | 80 | 1097.9 |
| 20260501220518 | 43 | 0 | 0.0 | 0.0 | 0.00 | 0.00 | 0.00 | 80 | 1097.8 |
| 20260501220403 | 43 | 0 | 0.0 | 0.0 | 0.00 | 0.00 | 0.00 | 80 | 1098.1 |
| 20260501220203 | 44 | 0 | 0.0 | 0.0 | 0.00 | 0.00 | 0.00 | 79 | 1098.2 |
| 20260501215803 | 44 | 0 | 0.0 | 0.0 | 0.00 | 0.00 | 0.00 | 79 | 1097.9 |
| 20260501215703 | 44 | 0 | 0.0 | 0.0 | 0.00 | 0.00 | 0.00 | 79 | 1098.1 |
| 20260501215603 | 44 | 0 | 0.0 | 0.0 | 0.00 | 0.00 | 0.00 | 80 | 1097.7 |
| 20260501215518 | 44 | 0 | 0.0 | 0.0 | 0.00 | 0.00 | 0.00 | 80 | 1098.2 |
| 20260501215403 | 44 | 0 | 0.0 | 0.0 | 0.00 | 0.00 | 0.00 | 79 | 1097.8 |
| 20260501215203 | 44 | 0 | 0.0 | 0.0 | 0.00 | 0.00 | 0.00 | 79 | 1098.1 |
| 20260501215103 | 44 | 0 | 0.0 | 0.0 | 0.00 | 0.00 | 0.00 | 79 | 1098.3 |
| 20260501215003 | 44 | 0 | 0.0 | 0.0 | 0.00 | 0.00 | 0.00 | 80 | 1098.1 |
| 20260501214703 | 44 | 0 | 0.0 | 0.0 | 0.00 | 0.00 | 0.00 | 79 | 1097.8 |
| 20260501214603 | 44 | 0 | 0.0 | 0.0 | 0.00 | 0.00 | 0.00 | 78 | 1098.2 |
| 20260501214518 | 44 | 0 | 0.0 | 0.0 | 0.00 | 0.00 | 0.00 | 78 | 1098.2 |
| 20260501214403 | 44 | 0 | 0.0 | 0.0 | 0.00 | 0.00 | 0.00 | 79 | 1098.1 |
| 20260501214203 | 44 | 0 | 0.0 | 0.0 | 0.00 | 0.00 | 0.00 | 80 | 1097.9 |
| 20260501214103 | 44 | 0 | 0.0 | 0.0 | 0.00 | 0.00 | 0.00 | 80 | 1097.9 |
| 20260501214003 | 44 | 0 | 0.0 | 0.0 | 0.00 | 0.00 | 0.00 | 79 | 1097.9 |
| 20260501213903 | 44 | 0 | 0.0 | 0.0 | 0.00 | 0.00 | 0.00 | 80 | 1097.8 |
| 20260501213803 | 44 | 0 | 0.0 | 0.0 | 0.00 | 0.00 | 0.00 | 77 | 1098.1 |
| 20260501213703 | 44 | 0 | 0.0 | 0.0 | 0.00 | 0.00 | 0.00 | 76 | 1097.9 |
| 20260501213603 | 44 | 0 | 0.0 | 0.0 | 0.00 | 0.00 | 0.00 | 77 | 1097.9 |
| 20260501213503 | 44 | 0 | 0.0 | 0.0 | 0.00 | 0.00 | 0.00 | 77 | 1097.8 |
| 20260501213403 | 44 | 0 | 0.0 | 0.0 | 0.00 | 0.00 | 0.00 | 76 | 1098.1 |
| 20260501213303 | 44 | 0 | 0.0 | 0.0 | 0.00 | 0.00 | 0.00 | 76 | 1097.8 |
| 20260501213203 | 44 | 0 | 0.0 | 0.0 | 0.00 | 0.00 | 0.00 | 76 | 1097.7 |
| 20260501213103 | 44 | 0 | 0.0 | 0.0 | 0.00 | 0.00 | 0.00 | 76 | 1097.6 |
| 20260501213003 | 44 | 0 | 0.0 | 0.0 | 0.00 | 0.00 | 0.00 | 76 | 1097.8 |
| 20260501212903 | 44 | 0 | 0.0 | 0.0 | 0.00 | 0.00 | 0.00 | 77 | 1098.1 |
| 20260501212703 | 45 | 0 | 0.0 | 0.0 | 0.00 | 0.00 | 0.00 | 76 | 1097.9 |
| 20260501212603 | 45 | 0 | 0.0 | 0.0 | 0.00 | 0.00 | 0.00 | 76 | 1098.1 |
| 20260501212503 | 45 | 0 | 0.0 | 0.0 | 0.00 | 0.00 | 0.00 | 75 | 1097.9 |
| 20260501212403 | 45 | 0 | 0.0 | 0.0 | 0.00 | 0.00 | 0.00 | 75 | 1098.1 |
| 20260501212306 | 45 | 0 | 0.0 | 0.0 | 0.00 | 0.00 | 0.00 | 76 | 1098.1 |
| 20260501212203 | 45 | 0 | 0.0 | 0.0 | 0.00 | 0.00 | 0.00 | 76 | 1097.9 |
| 20260501212103 | 45 | 0 | 0.0 | 0.0 | 0.00 | 0.00 | 0.00 | 76 | 1097.7 |
| 20260501212003 | 45 | 0 | 0.0 | 0.0 | 0.00 | 0.00 | 0.00 | 76 | 1097.9 |
| 20260501211703 | 45 | 0 | 0.0 | 0.0 | 0.00 | 0.00 | 0.00 | 78 | 1097.9 |
| 20260501211603 | 45 | 0 | 0.0 | 0.0 | 0.00 | 0.00 | 0.00 | 77 | 1098.1 |
| 20260501211403 | 45 | 0 | 0.0 | 0.0 | 0.00 | 0.00 | 0.00 | 77 | 1097.7 |
| 20260501211303 | 45 | 0 | 0.0 | 0.0 | 0.00 | 0.00 | 0.00 | 76 | 1097.8 |
| 20260501211203 | 45 | 0 | 0.0 | 0.0 | 0.00 | 0.00 | 0.00 | 77 | 1097.8 |
| 20260501211103 | 46 | 0 | 0.0 | 0.0 | 0.00 | 0.00 | 0.00 | 76 | 1097.8 |
| 20260501211003 | 46 | 0 | 0.0 | 0.0 | 0.00 | 0.00 | 0.00 | 75 | 1097.8 |
| 20260501210903 | 46 | 0 | 0.0 | 0.0 | 0.00 | 0.00 | 0.00 | 74 | 1097.8 |
| 20260501210803 | 46 | 0 | 0.0 | 0.0 | 0.00 | 0.00 | 0.00 | 74 | 1097.8 |
| 20260501210703 | 46 | 0 | 0.0 | 0.0 | 0.00 | 0.00 | 0.00 | 74 | 1097.8 |
| 20260501210603 | 46 | 0 | 0.0 | 0.0 | 0.00 | 0.00 | 0.00 | 74 | 1097.9 |
| 20260501210504 | 46 | 0 | 0.0 | 0.0 | 0.00 | 0.00 | 0.00 | 74 | 1097.9 |
| 20260501210403 | 46 | 0 | 0.0 | 0.0 | 0.00 | 0.00 | 0.00 | 73 | 1097.9 |
| 20260501210303 | 46 | 0 | 0.0 | 0.0 | 0.00 | 0.00 | 0.00 | 73 | 1097.8 |
| 20260501210203 | 46 | 0 | 0.0 | 0.0 | 0.00 | 0.00 | 0.00 | 74 | 1097.8 |
| 20260501210103 | 46 | 0 | 0.0 | 0.0 | 0.00 | 0.00 | 0.00 | 74 | 1097.9 |
| 20260501210003 | 46 | 0 | 0.0 | 0.0 | 0.00 | 0.00 | 0.00 | 74 | 1097.9 |
| 20260501205903 | 46 | 0 | 0.0 | 0.0 | 0.00 | 0.00 | 0.00 | 75 | 1097.9 |
| 20260501205803 | 46 | 0 | 0.0 | 0.0 | 0.00 | 0.00 | 0.00 | 75 | 1098.1 |
| 20260501205703 | 46 | 0 | 0.0 | 0.0 | 0.00 | 0.00 | 0.00 | 74 | 1097.9 |
| 20260501205603 | 46 | 0 | 0.0 | 0.0 | 0.00 | 0.00 | 0.00 | 73 | 1098.2 |
| 20260501205503 | 46 | 0 | 0.0 | 0.0 | 0.00 | 0.00 | 0.00 | 73 | 1098.2 |
| 20260501205403 | 46 | 0 | 0.0 | 0.0 | 0.00 | 0.00 | 0.00 | 72 | 1097.9 |
| 20260501205306 | 46 | 0 | 0.0 | 0.0 | 0.00 | 0.00 | 0.00 | 72 | 1097.8 |
| 20260501205203 | 46 | 0 | 0.0 | 0.0 | 0.00 | 0.00 | 0.00 | 72 | 1097.9 |
| 20260501205103 | 47 | 0 | 0.0 | 0.0 | 0.00 | 0.00 | 0.00 | 72 | 1097.8 |
| 20260501205003 | 47 | 0 | 0.0 | 0.0 | 0.00 | 0.00 | 0.00 | 73 | 1097.9 |
| 20260501204903 | 47 | 0 | 0.0 | 0.0 | 0.00 | 0.00 | 0.00 | 74 | 1097.9 |
| 20260501204803 | 47 | 0 | 0.0 | 0.0 | 0.00 | 0.00 | 0.00 | 71 | 1097.7 |
| 20260501204703 | 47 | 0 | 0.0 | 0.0 | 0.00 | 0.00 | 0.00 | 71 | 1097.9 |
| 20260501204603 | 47 | 0 | 0.0 | 0.0 | 0.00 | 0.00 | 0.00 | 71 | 1097.7 |
| 20260501204503 | 47 | 0 | 0.0 | 0.0 | 0.00 | 0.00 | 0.00 | 72 | 1097.8 |
| 20260501204304 | 47 | 0 | 0.0 | 0.0 | 0.00 | 0.00 | 0.00 | 73 | 1097.8 |
| 20260501204203 | 47 | 0 | 0.0 | 0.0 | 0.00 | 0.00 | 0.00 | 72 | 1097.8 |
| 20260501204103 | 47 | 0 | 0.0 | 0.0 | 0.00 | 0.00 | 0.00 | 71 | 1098.1 |
| 20260501204003 | 47 | 0 | 0.0 | 0.0 | 0.00 | 0.00 | 0.00 | 71 | 1098.3 |
| 20260501203903 | 47 | 0 | 0.0 | 0.0 | 0.00 | 0.00 | 0.00 | 71 | 1097.9 |
| 20260501203817 | 47 | 0 | 0.0 | 0.0 | 0.00 | 0.00 | 0.00 | 72 | 1098.1 |
| 20260501203703 | 47 | 0 | 0.0 | 0.0 | 0.00 | 0.00 | 0.00 | 73 | 1097.8 |
| 20260501203503 | 47 | 0 | 0.0 | 0.0 | 0.00 | 0.00 | 0.00 | 72 | 1097.9 |
| 20260501203403 | 47 | 0 | 0.0 | 0.0 | 0.00 | 0.00 | 0.00 | 73 | 1097.8 |
| 20260501203303 | 47 | 0 | 0.0 | 0.0 | 0.00 | 0.00 | 0.00 | 72 | 1098.1 |
| 20260501203203 | 47 | 0 | 0.0 | 0.0 | 0.00 | 0.00 | 0.00 | 70 | 1098.1 |
| 20260501203117 | 47 | 0 | 0.0 | 0.0 | 0.00 | 0.00 | 0.00 | 70 | 1097.6 |
| 20260501203103 | 47 | 0 | 0.0 | 0.0 | 0.00 | 0.00 | 0.00 | 71 | 1097.6 |
| 20260501203003 | 47 | 0 | 0.0 | 0.0 | 0.00 | 0.00 | 0.00 | 72 | 1097.8 |
| 20260501202803 | 47 | 0 | 0.0 | 0.0 | 0.00 | 0.00 | 0.00 | 72 | 1098.1 |
| 20260501202703 | 47 | 0 | 0.0 | 0.0 | 0.00 | 0.00 | 0.00 | 70 | 1097.9 |
| 20260501202603 | 47 | 0 | 0.0 | 0.0 | 0.00 | 0.00 | 0.00 | 71 | 1097.9 |
| 20260501202503 | 47 | 0 | 0.0 | 0.0 | 0.00 | 0.00 | 0.00 | 69 | 1097.9 |
| 20260501202403 | 47 | 0 | 0.0 | 0.0 | 0.00 | 0.00 | 0.00 | 71 | 1097.9 |
| 20260501202306 | 47 | 0 | 0.0 | 0.0 | 0.00 | 0.00 | 0.00 | 67 | 1098.1 |
| 20260501202203 | 48 | 0 | 0.0 | 0.0 | 0.00 | 0.00 | 0.00 | 68 | 1097.8 |
| 20260501202103 | 48 | 0 | 0.0 | 0.0 | 0.00 | 0.00 | 0.00 | 67 | 1097.7 |
| 20260501201903 | 48 | 0 | 0.0 | 0.0 | 0.00 | 0.00 | 0.00 | 68 | 1097.8 |
| 20260501201803 | 48 | 0 | 0.0 | 0.0 | 0.00 | 0.00 | 0.00 | 68 | 1097.7 |
| 20260501201703 | 48 | 0 | 0.0 | 0.0 | 0.00 | 0.00 | 0.00 | 70 | 1097.8 |
| 20260501201503 | 48 | 0 | 0.0 | 0.0 | 0.00 | 0.00 | 0.00 | 67 | 1097.9 |
| 20260501201403 | 48 | 0 | 0.0 | 0.0 | 0.00 | 0.00 | 0.00 | 68 | 1097.9 |
| 20260501201303 | 48 | 0 | 0.0 | 0.0 | 0.00 | 0.00 | 0.00 | 66 | 1097.7 |
| 20260501201203 | 48 | 0 | 0.0 | 0.0 | 0.00 | 0.00 | 0.00 | 67 | 1097.8 |
| 20260501201103 | 48 | 0 | 0.0 | 0.0 | 0.00 | 0.00 | 0.00 | 66 | 1097.8 |
| 20260501201003 | 48 | 0 | 0.0 | 0.0 | 0.00 | 0.00 | 0.00 | 66 | 1097.8 |
| 20260501200803 | 48 | 0 | 0.0 | 0.0 | 0.00 | 0.00 | 0.00 | 65 | 1097.5 |
| 20260501200703 | 48 | 0 | 0.0 | 0.0 | 0.00 | 0.00 | 0.00 | 65 | 1097.8 |
| 20260501200603 | 48 | 0 | 0.0 | 0.0 | 0.00 | 0.00 | 0.00 | 65 | 1097.8 |
| 20260501200503 | 49 | 0 | 0.0 | 0.0 | 0.00 | 0.00 | 0.00 | 65 | 1097.7 |
| 20260501200403 | 49 | 0 | 0.0 | 0.0 | 0.00 | 0.00 | 0.00 | 66 | 1097.8 |
| 20260501200303 | 49 | 0 | 0.0 | 0.0 | 0.00 | 0.00 | 0.00 | 66 | 1097.7 |
| 20260501200203 | 49 | 0 | 0.0 | 0.0 | 0.00 | 0.00 | 0.00 | 66 | 1097.5 |
| 20260501200103 | 49 | 0 | 0.0 | 0.0 | 0.00 | 0.00 | 0.00 | 66 | 1097.6 |
| 20260501200003 | 49 | 0 | 0.0 | 0.0 | 0.00 | 0.00 | 0.00 | 65 | 1097.7 |
| 20260501195803 | 49 | 0 | 0.0 | 0.0 | 0.00 | 0.00 | 0.00 | 66 | 1097.6 |
| 20260501195703 | 49 | 0 | 0.0 | 0.0 | 0.00 | 0.00 | 0.00 | 65 | 1097.8 |
| 20260501195603 | 49 | 0 | 0.0 | 0.0 | 0.00 | 0.00 | 0.00 | 65 | 1097.8 |
| 20260501195503 | 49 | 0 | 0.0 | 0.0 | 0.00 | 0.00 | 0.00 | 61 | 1097.8 |
| 20260501195403 | 49 | 0 | 0.0 | 0.0 | 0.00 | 0.00 | 0.00 | 61 | 1097.7 |
| 20260501195305 | 49 | 0 | 0.0 | 0.0 | 0.00 | 0.00 | 0.00 | 61 | 1097.6 |
| 20260501195203 | 49 | 0 | 0.0 | 0.0 | 0.00 | 0.00 | 0.00 | 61 | 1097.9 |
| 20260501195103 | 49 | 0 | 0.0 | 0.0 | 0.00 | 0.00 | 0.00 | 61 | 1097.6 |
| 20260501195003 | 50 | 0 | 0.0 | 0.0 | 0.00 | 0.00 | 0.00 | 61 | 1097.8 |
| 20260501194903 | 50 | 0 | 0.0 | 0.0 | 0.00 | 0.00 | 0.00 | 61 | 1097.8 |
| 20260501194803 | 50 | 0 | 0.0 | 0.0 | 0.00 | 0.00 | 0.00 | 61 | 1097.6 |
| 20260501194503 | 50 | 0 | 0.0 | 0.0 | 0.00 | 0.00 | 0.00 | 61 | 1097.8 |
| 20260501194403 | 50 | 0 | 0.0 | 0.0 | 0.00 | 0.00 | 0.00 | 61 | 1097.6 |
| 20260501194303 | 51 | 0 | 0.0 | 0.0 | 0.00 | 0.00 | 0.00 | 61 | 1097.8 |
| 20260501194203 | 51 | 0 | 0.0 | 0.0 | 0.00 | 0.00 | 0.00 | 61 | 1097.8 |
| 20260501194103 | 51 | 0 | 0.0 | 0.0 | 0.00 | 0.00 | 0.00 | 61 | 1097.6 |
| 20260501194018 | 51 | 0 | 0.0 | 0.0 | 0.00 | 0.00 | 0.00 | 61 | 1097.8 |
| 20260501193703 | 51 | 0 | 0.0 | 0.0 | 0.00 | 0.00 | 0.00 | 62 | 1097.5 |
| 20260501193603 | 51 | 0 | 0.0 | 0.0 | 0.00 | 0.00 | 0.00 | 63 | 1097.7 |
| 20260501193503 | 51 | 0 | 0.0 | 0.0 | 0.00 | 0.00 | 0.00 | 63 | 1097.7 |
| 20260501193403 | 51 | 0 | 0.0 | 0.0 | 0.00 | 0.00 | 0.00 | 62 | 1097.7 |
| 20260501193318 | 51 | 0 | 0.0 | 0.0 | 0.00 | 0.00 | 0.00 | 60 | 1097.8 |
| 20260501193203 | 51 | 0 | 0.0 | 0.0 | 0.00 | 0.00 | 0.00 | 60 | 1097.7 |
| 20260501193003 | 52 | 0 | 0.0 | 0.0 | 0.00 | 0.00 | 0.00 | 60 | 1097.7 |
| 20260501192903 | 52 | 0 | 0.0 | 0.0 | 0.00 | 0.00 | 0.00 | 60 | 1097.9 |
| 20260501192803 | 52 | 0 | 0.0 | 0.0 | 0.00 | 0.00 | 0.00 | 60 | 1097.6 |
| 20260501192703 | 52 | 0 | 0.0 | 0.0 | 0.00 | 0.00 | 0.00 | 60 | 1097.5 |
| 20260501192603 | 52 | 0 | 0.0 | 0.0 | 0.00 | 0.00 | 0.00 | 59 | 1097.7 |
| 20260501192403 | 52 | 0 | 0.0 | 0.0 | 0.00 | 0.00 | 0.00 | 59 | 1097.9 |
| 20260501192306 | 52 | 0 | 0.0 | 0.0 | 0.00 | 0.00 | 0.00 | 59 | 1097.8 |
| 20260501192203 | 52 | 0 | 0.0 | 0.0 | 0.00 | 0.00 | 0.00 | 59 | 1097.6 |
| 20260501192103 | 52 | 0 | 0.0 | 0.0 | 0.00 | 0.00 | 0.00 | 59 | 1097.5 |
| 20260501192003 | 52 | 0 | 0.0 | 0.0 | 0.00 | 0.00 | 0.00 | 58 | 1097.6 |
| 20260501191903 | 53 | 217 | 0.0 | 1.0 | 0.00 | 0.00 | 0.00 | 58 | 1097.8 |
| 20260501191803 | 53 | 217 | 0.0 | 1.0 | 0.00 | 0.00 | 0.00 | 59 | 1097.7 |
| 20260501191603 | 53 | 217 | 0.0 | 1.0 | 0.00 | 0.00 | 0.00 | 59 | 1097.6 |
| 20260501191503 | 53 | 217 | 0.0 | 1.0 | 0.00 | 0.00 | 0.00 | 59 | 1097.4 |
| 20260501191403 | 53 | 232 | 0.0 | 1.0 | 0.00 | 0.00 | 0.00 | 58 | 1097.7 |
| 20260501191303 | 53 | 232 | 0.0 | 1.0 | 0.00 | 0.00 | 0.00 | 58 | 1097.7 |
| 20260501191203 | 53 | 232 | 0.0 | 1.0 | 0.00 | 0.00 | 0.00 | 58 | 1097.5 |
| 20260501191103 | 53 | 232 | 0.0 | 1.0 | 0.00 | 0.00 | 0.00 | 58 | 1097.8 |
| 20260501191003 | 53 | 232 | 0.0 | 1.0 | 0.00 | 0.00 | 0.00 | 58 | 1097.7 |
| 20260501190903 | 53 | 240 | 0.0 | 1.0 | 0.00 | 0.00 | 0.00 | 57 | 1097.7 |
| 20260501190703 | 53 | 271 | 0.0 | 1.0 | 0.00 | 0.00 | 0.00 | 57 | 1097.4 |
| 20260501190618 | 53 | 309 | 0.0 | 1.0 | 0.00 | 0.00 | 0.00 | 57 | 1097.7 |
| 20260501190603 | 53 | 324 | 0.0 | 1.0 | 0.00 | 0.00 | 0.00 | 57 | 1097.7 |
| 20260501190503 | 53 | 357 | 0.0 | 3.0 | 0.00 | 0.00 | 0.00 | 59 | 1097.6 |
| 20260501190303 | 53 | 8 | 1.0 | 6.0 | 0.00 | 0.00 | 0.00 | 57 | 1097.6 |
| 20260501190203 | 53 | 8 | 1.0 | 6.0 | 0.00 | 0.00 | 0.00 | 57 | 1097.7 |
| 20260501190003 | 54 | 6 | 1.0 | 6.0 | 0.00 | 0.00 | 0.00 | 58 | 1097.4 |
| 20260501185903 | 53 | 5 | 1.0 | 6.0 | 0.00 | 0.00 | 0.00 | 56 | 1097.7 |
| 20260501185803 | 54 | 3 | 1.0 | 6.0 | 0.00 | 0.00 | 0.00 | 56 | 1097.6 |
| 20260501185703 | 54 | 3 | 1.0 | 6.0 | 0.00 | 0.00 | 0.00 | 56 | 1097.6 |
| 20260501185603 | 54 | 2 | 1.0 | 6.0 | 0.00 | 0.00 | 0.00 | 56 | 1097.5 |
| 20260501185503 | 54 | 356 | 0.0 | 6.0 | 0.00 | 0.00 | 0.00 | 57 | 1097.6 |
| 20260501185403 | 54 | 355 | 0.0 | 3.0 | 0.00 | 0.00 | 0.00 | 56 | 1097.5 |
| 20260501185306 | 54 | 311 | 0.0 | 1.0 | 0.00 | 0.00 | 0.00 | 57 | 1097.5 |
| 20260501185203 | 54 | 311 | 0.0 | 1.0 | 0.00 | 0.00 | 0.00 | 55 | 1097.5 |
| 20260501185103 | 54 | 311 | 0.0 | 1.0 | 0.00 | 0.00 | 0.00 | 55 | 1097.7 |
| 20260501185003 | 54 | 306 | 0.0 | 1.0 | 0.00 | 0.00 | 0.00 | 55 | 1097.6 |
| 20260501184903 | 54 | 298 | 0.0 | 1.0 | 0.00 | 0.00 | 0.00 | 54 | 1097.5 |
| 20260501184803 | 54 | 279 | 0.0 | 1.0 | 0.00 | 0.00 | 0.00 | 55 | 1097.4 |
| 20260501184703 | 54 | 279 | 0.0 | 1.0 | 0.00 | 0.00 | 0.00 | 53 | 1097.2 |
| 20260501184603 | 54 | 279 | 0.0 | 1.0 | 0.00 | 0.00 | 0.00 | 53 | 1097.4 |
| 20260501184504 | 55 | 279 | 0.0 | 1.0 | 0.00 | 0.00 | 0.00 | 52 | 1097.4 |
| 20260501184417 | 55 | 272 | 0.0 | 1.0 | 0.00 | 0.00 | 0.00 | 52 | 1097.6 |
| 20260501184403 | 55 | 270 | 0.0 | 1.0 | 0.00 | 0.00 | 0.00 | 52 | 1097.6 |
| 20260501184303 | 55 | 261 | 0.0 | 1.0 | 0.00 | 0.00 | 0.00 | 52 | 1097.4 |
| 20260501184103 | 55 | 261 | 0.0 | 1.0 | 0.00 | 0.00 | 0.00 | 52 | 1097.3 |
| 20260501184003 | 55 | 261 | 0.0 | 1.0 | 0.00 | 0.00 | 0.00 | 52 | 1097.5 |
| 20260501183903 | 55 | 256 | 0.0 | 1.0 | 0.00 | 0.00 | 0.00 | 51 | 1097.5 |
| 20260501183803 | 55 | 256 | 0.0 | 1.0 | 0.00 | 0.00 | 0.00 | 51 | 1097.2 |
| 20260501183717 | 56 | 258 | 0.0 | 1.0 | 0.00 | 0.00 | 0.00 | 51 | 1097.3 |
| 20260501183603 | 56 | 258 | 0.0 | 1.0 | 0.00 | 0.00 | 0.00 | 51 | 1097.5 |
| 20260501183403 | 56 | 259 | 0.0 | 2.0 | 0.00 | 0.00 | 0.00 | 50 | 1097.4 |
| 20260501183303 | 56 | 257 | 0.0 | 2.0 | 0.00 | 0.00 | 0.00 | 50 | 1097.3 |
| 20260501183203 | 56 | 257 | 0.0 | 2.0 | 0.00 | 0.00 | 0.00 | 49 | 1097.3 |
| 20260501183103 | 56 | 257 | 0.0 | 2.0 | 0.00 | 0.00 | 0.00 | 49 | 1097.3 |
| 20260501183003 | 56 | 257 | 0.0 | 2.0 | 0.00 | 0.00 | 0.00 | 49 | 1097.4 |
| 20260501182903 | 57 | 258 | 1.0 | 2.0 | 0.00 | 0.00 | 0.00 | 49 | 1097.3 |
| 20260501182703 | 57 | 260 | 1.0 | 3.0 | 0.00 | 0.00 | 0.00 | 48 | 1097.1 |
| 20260501182617 | 57 | 258 | 1.0 | 3.0 | 0.00 | 0.00 | 0.00 | 48 | 1097.5 |
| 20260501182603 | 57 | 259 | 1.0 | 3.0 | 0.00 | 0.00 | 0.00 | 48 | 1097.5 |
| 20260501182503 | 57 | 258 | 1.0 | 3.0 | 0.00 | 0.00 | 0.00 | 48 | 1097.5 |
| 20260501182203 | 58 | 259 | 1.0 | 3.0 | 0.00 | 0.00 | 0.00 | 48 | 1097.3 |
| 20260501182103 | 58 | 261 | 1.0 | 3.0 | 0.00 | 0.00 | 0.00 | 47 | 1097.4 |
| 20260501182003 | 58 | 264 | 1.0 | 3.0 | 0.00 | 0.00 | 0.00 | 47 | 1097.4 |
| 20260501181903 | 58 | 265 | 1.0 | 3.0 | 0.00 | 0.00 | 0.00 | 47 | 1097.4 |
| 20260501181703 | 58 | 273 | 1.0 | 3.0 | 0.00 | 0.00 | 0.00 | 47 | 1097.2 |